<?xml version="1.0" encoding="UTF-8" standalone="no" ?>
<gpx xmlns="http://www.topografix.com/GPX/1/1" xmlns:xsi="http://www.w3.org/2001/XMLSchema-instance" xsi:schemaLocation="http://www.topografix.com/GPX/1/1 http://www.topografix.com/GPX/1/1/gpx.xsd" version="1.1" creator="VisuGPX - https://www.visugpx.com">
  <metadata>
    <name>Rouans_GrdCheminMaraisAcheneauMessanCheix_11-23km</name>
    <desc><![CDATA[gnerando idor:6533359_8371104_8372014]]></desc>
  </metadata>
  <trk>
    <name><![CDATA[Rouans_LeGrandChemin_21.3km-6533359]]></name>
    <extensions>
      <line xmlns="http://www.topografix.com/GPX/gpx_style/0/2">
        <color>0000FF</color>
        <width>4</width>
      </line>
    </extensions>
    <trkseg>
      <trkpt lat="47.19226" lon="-1.8538">
        <ele>4</ele>
        <time>2023-11-12T06:24:18Z</time>
      </trkpt>
      <trkpt lat="47.19234" lon="-1.85356">
        <ele>4</ele>
        <time>2023-11-12T06:24:42Z</time>
      </trkpt>
      <trkpt lat="47.19245" lon="-1.85334">
        <ele>4</ele>
        <time>2023-11-12T06:25:07Z</time>
      </trkpt>
      <trkpt lat="47.19248" lon="-1.85307">
        <ele>4</ele>
        <time>2023-11-12T06:25:32Z</time>
      </trkpt>
      <trkpt lat="47.19222" lon="-1.85267">
        <ele>3</ele>
        <time>2023-11-12T06:26:22Z</time>
      </trkpt>
      <trkpt lat="47.19211" lon="-1.85244">
        <ele>3</ele>
        <time>2023-11-12T06:26:48Z</time>
      </trkpt>
      <trkpt lat="47.19205" lon="-1.85219">
        <ele>3</ele>
        <time>2023-11-12T06:27:12Z</time>
      </trkpt>
      <trkpt lat="47.19186" lon="-1.8517">
        <ele>3</ele>
        <time>2023-11-12T06:28:03Z</time>
      </trkpt>
      <trkpt lat="47.19166" lon="-1.85062">
        <ele>1</ele>
        <time>2023-11-12T06:29:44Z</time>
      </trkpt>
      <trkpt lat="47.19155" lon="-1.84981">
        <ele>2</ele>
        <time>2023-11-12T06:30:59Z</time>
      </trkpt>
      <trkpt lat="47.19144" lon="-1.84958">
        <ele>3</ele>
        <time>2023-11-12T06:31:25Z</time>
      </trkpt>
      <trkpt lat="47.19129" lon="-1.84941">
        <ele>3</ele>
        <time>2023-11-12T06:31:50Z</time>
      </trkpt>
      <trkpt lat="47.19112" lon="-1.84932">
        <ele>3</ele>
        <time>2023-11-12T06:32:14Z</time>
      </trkpt>
      <trkpt lat="47.19075" lon="-1.84924">
        <ele>2</ele>
        <time>2023-11-12T06:33:04Z</time>
      </trkpt>
      <trkpt lat="47.19061" lon="-1.84907">
        <ele>2</ele>
        <time>2023-11-12T06:33:28Z</time>
      </trkpt>
      <trkpt lat="47.19057" lon="-1.8488">
        <ele>2</ele>
        <time>2023-11-12T06:33:53Z</time>
      </trkpt>
      <trkpt lat="47.19056" lon="-1.84853">
        <ele>2</ele>
        <time>2023-11-12T06:34:18Z</time>
      </trkpt>
      <trkpt lat="47.19059" lon="-1.84826">
        <ele>2</ele>
        <time>2023-11-12T06:34:43Z</time>
      </trkpt>
      <trkpt lat="47.19065" lon="-1.848">
        <ele>2</ele>
        <time>2023-11-12T06:35:07Z</time>
      </trkpt>
      <trkpt lat="47.19076" lon="-1.84777">
        <ele>2</ele>
        <time>2023-11-12T06:35:33Z</time>
      </trkpt>
      <trkpt lat="47.19092" lon="-1.84762">
        <ele>1</ele>
        <time>2023-11-12T06:35:58Z</time>
      </trkpt>
      <trkpt lat="47.19127" lon="-1.84749">
        <ele>2</ele>
        <time>2023-11-12T06:36:46Z</time>
      </trkpt>
      <trkpt lat="47.19142" lon="-1.8473">
        <ele>3</ele>
        <time>2023-11-12T06:37:13Z</time>
      </trkpt>
      <trkpt lat="47.19127" lon="-1.84624">
        <ele>3</ele>
        <time>2023-11-12T06:38:51Z</time>
      </trkpt>
      <trkpt lat="47.19104" lon="-1.84548">
        <ele>2</ele>
        <time>2023-11-12T06:40:06Z</time>
      </trkpt>
      <trkpt lat="47.191" lon="-1.84521">
        <ele>2</ele>
        <time>2023-11-12T06:40:32Z</time>
      </trkpt>
      <trkpt lat="47.19108" lon="-1.84355">
        <ele>3</ele>
        <time>2023-11-12T06:43:02Z</time>
      </trkpt>
      <trkpt lat="47.19098" lon="-1.84246">
        <ele>3</ele>
        <time>2023-11-12T06:44:42Z</time>
      </trkpt>
      <trkpt lat="47.19108" lon="-1.84166">
        <ele>3</ele>
        <time>2023-11-12T06:45:56Z</time>
      </trkpt>
      <trkpt lat="47.19119" lon="-1.84143">
        <ele>4</ele>
        <time>2023-11-12T06:46:21Z</time>
      </trkpt>
      <trkpt lat="47.19154" lon="-1.84128">
        <ele>7</ele>
        <time>2023-11-12T06:47:10Z</time>
      </trkpt>
      <trkpt lat="47.19172" lon="-1.84123">
        <ele>8</ele>
        <time>2023-11-12T06:47:35Z</time>
      </trkpt>
      <trkpt lat="47.19191" lon="-1.84121">
        <ele>8</ele>
        <time>2023-11-12T06:48:00Z</time>
      </trkpt>
      <trkpt lat="47.19203" lon="-1.841">
        <ele>8</ele>
        <time>2023-11-12T06:48:25Z</time>
      </trkpt>
      <trkpt lat="47.19205" lon="-1.84072">
        <ele>9</ele>
        <time>2023-11-12T06:48:50Z</time>
      </trkpt>
      <trkpt lat="47.19205" lon="-1.84017">
        <ele>11</ele>
        <time>2023-11-12T06:49:40Z</time>
      </trkpt>
      <trkpt lat="47.19201" lon="-1.83989">
        <ele>11</ele>
        <time>2023-11-12T06:50:06Z</time>
      </trkpt>
      <trkpt lat="47.19181" lon="-1.83911">
        <ele>12</ele>
        <time>2023-11-12T06:51:22Z</time>
      </trkpt>
      <trkpt lat="47.19151" lon="-1.83811">
        <ele>11</ele>
        <time>2023-11-12T06:53:01Z</time>
      </trkpt>
      <trkpt lat="47.19146" lon="-1.83786">
        <ele>11</ele>
        <time>2023-11-12T06:53:25Z</time>
      </trkpt>
      <trkpt lat="47.19131" lon="-1.83679">
        <ele>10</ele>
        <time>2023-11-12T06:55:04Z</time>
      </trkpt>
      <trkpt lat="47.1912" lon="-1.83516">
        <ele>14</ele>
        <time>2023-11-12T06:57:32Z</time>
      </trkpt>
      <trkpt lat="47.19106" lon="-1.83498">
        <ele>14</ele>
        <time>2023-11-12T06:57:57Z</time>
      </trkpt>
      <trkpt lat="47.19014" lon="-1.83522">
        <ele>12</ele>
        <time>2023-11-12T07:00:02Z</time>
      </trkpt>
      <trkpt lat="47.1894" lon="-1.83546">
        <ele>11</ele>
        <time>2023-11-12T07:01:43Z</time>
      </trkpt>
      <trkpt lat="47.18884" lon="-1.83559">
        <ele>11</ele>
        <time>2023-11-12T07:02:58Z</time>
      </trkpt>
      <trkpt lat="47.18724" lon="-1.83619">
        <ele>11</ele>
        <time>2023-11-12T07:06:39Z</time>
      </trkpt>
      <trkpt lat="47.18668" lon="-1.83633">
        <ele>9</ele>
        <time>2023-11-12T07:07:55Z</time>
      </trkpt>
      <trkpt lat="47.18649" lon="-1.8364">
        <ele>9</ele>
        <time>2023-11-12T07:08:21Z</time>
      </trkpt>
      <trkpt lat="47.18634" lon="-1.83656">
        <ele>8</ele>
        <time>2023-11-12T07:08:45Z</time>
      </trkpt>
      <trkpt lat="47.18629" lon="-1.83683">
        <ele>8</ele>
        <time>2023-11-12T07:09:11Z</time>
      </trkpt>
      <trkpt lat="47.18631" lon="-1.8371">
        <ele>7</ele>
        <time>2023-11-12T07:09:35Z</time>
      </trkpt>
      <trkpt lat="47.18627" lon="-1.83739">
        <ele>6</ele>
        <time>2023-11-12T07:10:02Z</time>
      </trkpt>
      <trkpt lat="47.18611" lon="-1.83787">
        <ele>6</ele>
        <time>2023-11-12T07:10:51Z</time>
      </trkpt>
      <trkpt lat="47.18598" lon="-1.83807">
        <ele>6</ele>
        <time>2023-11-12T07:11:16Z</time>
      </trkpt>
      <trkpt lat="47.18503" lon="-1.83895">
        <ele>5</ele>
        <time>2023-11-12T07:13:46Z</time>
      </trkpt>
      <trkpt lat="47.18484" lon="-1.83897">
        <ele>4</ele>
        <time>2023-11-12T07:14:11Z</time>
      </trkpt>
      <trkpt lat="47.18467" lon="-1.83885">
        <ele>4</ele>
        <time>2023-11-12T07:14:36Z</time>
      </trkpt>
      <trkpt lat="47.18436" lon="-1.83854">
        <ele>3</ele>
        <time>2023-11-12T07:15:26Z</time>
      </trkpt>
      <trkpt lat="47.18408" lon="-1.83818">
        <ele>3</ele>
        <time>2023-11-12T07:16:16Z</time>
      </trkpt>
      <trkpt lat="47.18395" lon="-1.83797">
        <ele>3</ele>
        <time>2023-11-12T07:16:42Z</time>
      </trkpt>
      <trkpt lat="47.1835" lon="-1.83708">
        <ele>2</ele>
        <time>2023-11-12T07:18:22Z</time>
      </trkpt>
      <trkpt lat="47.1833" lon="-1.83633">
        <ele>2</ele>
        <time>2023-11-12T07:19:35Z</time>
      </trkpt>
      <trkpt lat="47.18329" lon="-1.83606">
        <ele>3</ele>
        <time>2023-11-12T07:20:00Z</time>
      </trkpt>
      <trkpt lat="47.18337" lon="-1.83581">
        <ele>3</ele>
        <time>2023-11-12T07:20:25Z</time>
      </trkpt>
      <trkpt lat="47.18367" lon="-1.83546">
        <ele>4</ele>
        <time>2023-11-12T07:21:16Z</time>
      </trkpt>
      <trkpt lat="47.18383" lon="-1.83533">
        <ele>4</ele>
        <time>2023-11-12T07:21:40Z</time>
      </trkpt>
      <trkpt lat="47.1841" lon="-1.83495">
        <ele>4</ele>
        <time>2023-11-12T07:22:30Z</time>
      </trkpt>
      <trkpt lat="47.1843" lon="-1.83448">
        <ele>5</ele>
        <time>2023-11-12T07:23:21Z</time>
      </trkpt>
      <trkpt lat="47.18442" lon="-1.83426">
        <ele>5</ele>
        <time>2023-11-12T07:23:46Z</time>
      </trkpt>
      <trkpt lat="47.18429" lon="-1.83408">
        <ele>5</ele>
        <time>2023-11-12T07:24:10Z</time>
      </trkpt>
      <trkpt lat="47.1841" lon="-1.83409">
        <ele>5</ele>
        <time>2023-11-12T07:24:35Z</time>
      </trkpt>
      <trkpt lat="47.18355" lon="-1.834">
        <ele>5</ele>
        <time>2023-11-12T07:25:49Z</time>
      </trkpt>
      <trkpt lat="47.18336" lon="-1.83402">
        <ele>5</ele>
        <time>2023-11-12T07:26:15Z</time>
      </trkpt>
      <trkpt lat="47.18318" lon="-1.83409">
        <ele>5</ele>
        <time>2023-11-12T07:26:39Z</time>
      </trkpt>
      <trkpt lat="47.183" lon="-1.83407">
        <ele>4</ele>
        <time>2023-11-12T07:27:04Z</time>
      </trkpt>
      <trkpt lat="47.18265" lon="-1.83384">
        <ele>4</ele>
        <time>2023-11-12T07:27:55Z</time>
      </trkpt>
      <trkpt lat="47.18249" lon="-1.83368">
        <ele>4</ele>
        <time>2023-11-12T07:28:21Z</time>
      </trkpt>
      <trkpt lat="47.18213" lon="-1.83306">
        <ele>4</ele>
        <time>2023-11-12T07:29:34Z</time>
      </trkpt>
      <trkpt lat="47.18181" lon="-1.83239">
        <ele>3</ele>
        <time>2023-11-12T07:30:49Z</time>
      </trkpt>
      <trkpt lat="47.18146" lon="-1.83115">
        <ele>2</ele>
        <time>2023-11-12T07:32:51Z</time>
      </trkpt>
      <trkpt lat="47.1814" lon="-1.8309">
        <ele>2</ele>
        <time>2023-11-12T07:33:15Z</time>
      </trkpt>
      <trkpt lat="47.18138" lon="-1.83063">
        <ele>2</ele>
        <time>2023-11-12T07:33:39Z</time>
      </trkpt>
      <trkpt lat="47.18139" lon="-1.83035">
        <ele>3</ele>
        <time>2023-11-12T07:34:05Z</time>
      </trkpt>
      <trkpt lat="47.18151" lon="-1.83014">
        <ele>3</ele>
        <time>2023-11-12T07:34:30Z</time>
      </trkpt>
      <trkpt lat="47.18186" lon="-1.82992">
        <ele>4</ele>
        <time>2023-11-12T07:35:20Z</time>
      </trkpt>
      <trkpt lat="47.18205" lon="-1.8299">
        <ele>3</ele>
        <time>2023-11-12T07:35:46Z</time>
      </trkpt>
      <trkpt lat="47.18241" lon="-1.82996">
        <ele>3</ele>
        <time>2023-11-12T07:36:34Z</time>
      </trkpt>
      <trkpt lat="47.1826" lon="-1.82992">
        <ele>3</ele>
        <time>2023-11-12T07:37:00Z</time>
      </trkpt>
      <trkpt lat="47.18276" lon="-1.82978">
        <ele>3</ele>
        <time>2023-11-12T07:37:25Z</time>
      </trkpt>
      <trkpt lat="47.18289" lon="-1.82958">
        <ele>4</ele>
        <time>2023-11-12T07:37:50Z</time>
      </trkpt>
      <trkpt lat="47.18296" lon="-1.82933">
        <ele>4</ele>
        <time>2023-11-12T07:38:14Z</time>
      </trkpt>
      <trkpt lat="47.18307" lon="-1.82912">
        <ele>4</ele>
        <time>2023-11-12T07:38:38Z</time>
      </trkpt>
      <trkpt lat="47.18321" lon="-1.82896">
        <ele>4</ele>
        <time>2023-11-12T07:39:02Z</time>
      </trkpt>
      <trkpt lat="47.18338" lon="-1.82885">
        <ele>5</ele>
        <time>2023-11-12T07:39:27Z</time>
      </trkpt>
      <trkpt lat="47.18322" lon="-1.82806">
        <ele>4</ele>
        <time>2023-11-12T07:40:41Z</time>
      </trkpt>
      <trkpt lat="47.1831" lon="-1.82784">
        <ele>3</ele>
        <time>2023-11-12T07:41:07Z</time>
      </trkpt>
      <trkpt lat="47.18277" lon="-1.82683">
        <ele>3</ele>
        <time>2023-11-12T07:42:49Z</time>
      </trkpt>
      <trkpt lat="47.18273" lon="-1.82629">
        <ele>3</ele>
        <time>2023-11-12T07:43:38Z</time>
      </trkpt>
      <trkpt lat="47.18276" lon="-1.82546">
        <ele>3</ele>
        <time>2023-11-12T07:44:53Z</time>
      </trkpt>
      <trkpt lat="47.18283" lon="-1.82522">
        <ele>3</ele>
        <time>2023-11-12T07:45:17Z</time>
      </trkpt>
      <trkpt lat="47.18293" lon="-1.82499">
        <ele>4</ele>
        <time>2023-11-12T07:45:42Z</time>
      </trkpt>
      <trkpt lat="47.18307" lon="-1.82481">
        <ele>4</ele>
        <time>2023-11-12T07:46:07Z</time>
      </trkpt>
      <trkpt lat="47.18301" lon="-1.82457">
        <ele>4</ele>
        <time>2023-11-12T07:46:30Z</time>
      </trkpt>
      <trkpt lat="47.18276" lon="-1.82413">
        <ele>4</ele>
        <time>2023-11-12T07:47:22Z</time>
      </trkpt>
      <trkpt lat="47.18274" lon="-1.82386">
        <ele>3</ele>
        <time>2023-11-12T07:47:46Z</time>
      </trkpt>
      <trkpt lat="47.18287" lon="-1.82365">
        <ele>3</ele>
        <time>2023-11-12T07:48:12Z</time>
      </trkpt>
      <trkpt lat="47.18318" lon="-1.82337">
        <ele>4</ele>
        <time>2023-11-12T07:49:01Z</time>
      </trkpt>
      <trkpt lat="47.18332" lon="-1.8232">
        <ele>4</ele>
        <time>2023-11-12T07:49:25Z</time>
      </trkpt>
      <trkpt lat="47.1834" lon="-1.82296">
        <ele>4</ele>
        <time>2023-11-12T07:49:49Z</time>
      </trkpt>
      <trkpt lat="47.18333" lon="-1.82187">
        <ele>4</ele>
        <time>2023-11-12T07:51:28Z</time>
      </trkpt>
      <trkpt lat="47.18328" lon="-1.82159">
        <ele>4</ele>
        <time>2023-11-12T07:51:55Z</time>
      </trkpt>
      <trkpt lat="47.18332" lon="-1.82132">
        <ele>4</ele>
        <time>2023-11-12T07:52:20Z</time>
      </trkpt>
      <trkpt lat="47.18349" lon="-1.82122">
        <ele>5</ele>
        <time>2023-11-12T07:52:44Z</time>
      </trkpt>
      <trkpt lat="47.18386" lon="-1.82109">
        <ele>7</ele>
        <time>2023-11-12T07:53:35Z</time>
      </trkpt>
      <trkpt lat="47.18441" lon="-1.82097">
        <ele>10</ele>
        <time>2023-11-12T07:54:49Z</time>
      </trkpt>
      <trkpt lat="47.18456" lon="-1.82084">
        <ele>11</ele>
        <time>2023-11-12T07:55:12Z</time>
      </trkpt>
      <trkpt lat="47.1847" lon="-1.82063">
        <ele>11</ele>
        <time>2023-11-12T07:55:39Z</time>
      </trkpt>
      <trkpt lat="47.18482" lon="-1.82043">
        <ele>12</ele>
        <time>2023-11-12T07:56:03Z</time>
      </trkpt>
      <trkpt lat="47.18492" lon="-1.8202">
        <ele>12</ele>
        <time>2023-11-12T07:56:28Z</time>
      </trkpt>
      <trkpt lat="47.18498" lon="-1.81993">
        <ele>13</ele>
        <time>2023-11-12T07:56:54Z</time>
      </trkpt>
      <trkpt lat="47.18501" lon="-1.81966">
        <ele>13</ele>
        <time>2023-11-12T07:57:19Z</time>
      </trkpt>
      <trkpt lat="47.18507" lon="-1.8194">
        <ele>13</ele>
        <time>2023-11-12T07:57:44Z</time>
      </trkpt>
      <trkpt lat="47.18513" lon="-1.81859">
        <ele>11</ele>
        <time>2023-11-12T07:58:57Z</time>
      </trkpt>
      <trkpt lat="47.18511" lon="-1.81831">
        <ele>11</ele>
        <time>2023-11-12T07:59:23Z</time>
      </trkpt>
      <trkpt lat="47.18462" lon="-1.81792">
        <ele>8</ele>
        <time>2023-11-12T08:00:37Z</time>
      </trkpt>
      <trkpt lat="47.18445" lon="-1.81786">
        <ele>7</ele>
        <time>2023-11-12T08:01:01Z</time>
      </trkpt>
      <trkpt lat="47.18395" lon="-1.81749">
        <ele>6</ele>
        <time>2023-11-12T08:02:15Z</time>
      </trkpt>
      <trkpt lat="47.18222" lon="-1.81642">
        <ele>11</ele>
        <time>2023-11-12T08:06:26Z</time>
      </trkpt>
      <trkpt lat="47.18204" lon="-1.81641">
        <ele>11</ele>
        <time>2023-11-12T08:06:50Z</time>
      </trkpt>
      <trkpt lat="47.18191" lon="-1.8166">
        <ele>11</ele>
        <time>2023-11-12T08:07:14Z</time>
      </trkpt>
      <trkpt lat="47.18185" lon="-1.81715">
        <ele>10</ele>
        <time>2023-11-12T08:08:05Z</time>
      </trkpt>
      <trkpt lat="47.18177" lon="-1.81739">
        <ele>9</ele>
        <time>2023-11-12T08:08:29Z</time>
      </trkpt>
      <trkpt lat="47.18164" lon="-1.81758">
        <ele>9</ele>
        <time>2023-11-12T08:08:53Z</time>
      </trkpt>
      <trkpt lat="47.18148" lon="-1.81772">
        <ele>8</ele>
        <time>2023-11-12T08:09:18Z</time>
      </trkpt>
      <trkpt lat="47.18131" lon="-1.81782">
        <ele>6</ele>
        <time>2023-11-12T08:09:43Z</time>
      </trkpt>
      <trkpt lat="47.18112" lon="-1.81787">
        <ele>5</ele>
        <time>2023-11-12T08:10:08Z</time>
      </trkpt>
      <trkpt lat="47.18094" lon="-1.81795">
        <ele>4</ele>
        <time>2023-11-12T08:10:34Z</time>
      </trkpt>
      <trkpt lat="47.18075" lon="-1.81799">
        <ele>3</ele>
        <time>2023-11-12T08:10:59Z</time>
      </trkpt>
      <trkpt lat="47.18057" lon="-1.81793">
        <ele>2</ele>
        <time>2023-11-12T08:11:24Z</time>
      </trkpt>
      <trkpt lat="47.1805" lon="-1.81768">
        <ele>2</ele>
        <time>2023-11-12T08:11:48Z</time>
      </trkpt>
      <trkpt lat="47.18052" lon="-1.81741">
        <ele>3</ele>
        <time>2023-11-12T08:12:13Z</time>
      </trkpt>
      <trkpt lat="47.1805" lon="-1.81714">
        <ele>3</ele>
        <time>2023-11-12T08:12:38Z</time>
      </trkpt>
      <trkpt lat="47.18054" lon="-1.81657">
        <ele>5</ele>
        <time>2023-11-12T08:13:30Z</time>
      </trkpt>
      <trkpt lat="47.18049" lon="-1.81603">
        <ele>6</ele>
        <time>2023-11-12T08:14:19Z</time>
      </trkpt>
      <trkpt lat="47.18037" lon="-1.81582">
        <ele>6</ele>
        <time>2023-11-12T08:14:44Z</time>
      </trkpt>
      <trkpt lat="47.17982" lon="-1.81558">
        <ele>4</ele>
        <time>2023-11-12T08:16:00Z</time>
      </trkpt>
      <trkpt lat="47.17964" lon="-1.81557">
        <ele>4</ele>
        <time>2023-11-12T08:16:25Z</time>
      </trkpt>
      <trkpt lat="47.17944" lon="-1.81552">
        <ele>4</ele>
        <time>2023-11-12T08:16:52Z</time>
      </trkpt>
      <trkpt lat="47.17926" lon="-1.81553">
        <ele>3</ele>
        <time>2023-11-12T08:17:16Z</time>
      </trkpt>
      <trkpt lat="47.17906" lon="-1.8155">
        <ele>3</ele>
        <time>2023-11-12T08:17:42Z</time>
      </trkpt>
      <trkpt lat="47.17888" lon="-1.81554">
        <ele>3</ele>
        <time>2023-11-12T08:18:07Z</time>
      </trkpt>
      <trkpt lat="47.17853" lon="-1.81571">
        <ele>2</ele>
        <time>2023-11-12T08:18:56Z</time>
      </trkpt>
      <trkpt lat="47.17798" lon="-1.81586">
        <ele>3</ele>
        <time>2023-11-12T08:20:11Z</time>
      </trkpt>
      <trkpt lat="47.17761" lon="-1.81582">
        <ele>5</ele>
        <time>2023-11-12T08:21:00Z</time>
      </trkpt>
      <trkpt lat="47.17707" lon="-1.81563">
        <ele>5</ele>
        <time>2023-11-12T08:22:14Z</time>
      </trkpt>
      <trkpt lat="47.17626" lon="-1.81497">
        <ele>4</ele>
        <time>2023-11-12T08:24:18Z</time>
      </trkpt>
      <trkpt lat="47.17599" lon="-1.81459">
        <ele>3</ele>
        <time>2023-11-12T08:25:08Z</time>
      </trkpt>
      <trkpt lat="47.17591" lon="-1.81435">
        <ele>3</ele>
        <time>2023-11-12T08:25:32Z</time>
      </trkpt>
      <trkpt lat="47.17586" lon="-1.81381">
        <ele>2</ele>
        <time>2023-11-12T08:26:21Z</time>
      </trkpt>
      <trkpt lat="47.17511" lon="-1.81372">
        <ele>1</ele>
        <time>2023-11-12T08:28:02Z</time>
      </trkpt>
      <trkpt lat="47.17475" lon="-1.81365">
        <ele>1</ele>
        <time>2023-11-12T08:28:50Z</time>
      </trkpt>
      <trkpt lat="47.17438" lon="-1.81362">
        <ele>2</ele>
        <time>2023-11-12T08:29:40Z</time>
      </trkpt>
      <trkpt lat="47.17401" lon="-1.81351">
        <ele>1.3</ele>
        <time>2023-11-12T08:30:30Z</time>
      </trkpt>
      <trkpt lat="47.17363" lon="-1.81352">
        <ele>1.3</ele>
        <time>2023-11-12T08:31:21Z</time>
      </trkpt>
      <trkpt lat="47.17345" lon="-1.81358">
        <ele>1.6</ele>
        <time>2023-11-12T08:31:45Z</time>
      </trkpt>
      <trkpt lat="47.17328" lon="-1.81371">
        <ele>1.6</ele>
        <time>2023-11-12T08:32:11Z</time>
      </trkpt>
      <trkpt lat="47.17301" lon="-1.81406">
        <ele>1</ele>
        <time>2023-11-12T08:32:59Z</time>
      </trkpt>
      <trkpt lat="47.17153" lon="-1.8161">
        <ele>2</ele>
        <time>2023-11-12T08:37:30Z</time>
      </trkpt>
      <trkpt lat="47.17148" lon="-1.81637">
        <ele>3</ele>
        <time>2023-11-12T08:37:55Z</time>
      </trkpt>
      <trkpt lat="47.17149" lon="-1.81664">
        <ele>5</ele>
        <time>2023-11-12T08:38:19Z</time>
      </trkpt>
      <trkpt lat="47.17146" lon="-1.81691">
        <ele>5</ele>
        <time>2023-11-12T08:38:44Z</time>
      </trkpt>
      <trkpt lat="47.17137" lon="-1.81714">
        <ele>6</ele>
        <time>2023-11-12T08:39:08Z</time>
      </trkpt>
      <trkpt lat="47.17126" lon="-1.81767">
        <ele>7</ele>
        <time>2023-11-12T08:39:59Z</time>
      </trkpt>
      <trkpt lat="47.1712" lon="-1.8182">
        <ele>7</ele>
        <time>2023-11-12T08:40:47Z</time>
      </trkpt>
      <trkpt lat="47.17123" lon="-1.81848">
        <ele>6</ele>
        <time>2023-11-12T08:41:13Z</time>
      </trkpt>
      <trkpt lat="47.1711" lon="-1.81868">
        <ele>6</ele>
        <time>2023-11-12T08:41:38Z</time>
      </trkpt>
      <trkpt lat="47.17092" lon="-1.81877">
        <ele>7</ele>
        <time>2023-11-12T08:42:04Z</time>
      </trkpt>
      <trkpt lat="47.17039" lon="-1.81894">
        <ele>10</ele>
        <time>2023-11-12T08:43:16Z</time>
      </trkpt>
      <trkpt lat="47.17017" lon="-1.81895">
        <ele>12</ele>
        <time>2023-11-12T08:43:45Z</time>
      </trkpt>
      <trkpt lat="47.17005" lon="-1.81915">
        <ele>13</ele>
        <time>2023-11-12T08:44:10Z</time>
      </trkpt>
      <trkpt lat="47.17001" lon="-1.81942">
        <ele>13</ele>
        <time>2023-11-12T08:44:35Z</time>
      </trkpt>
      <trkpt lat="47.16989" lon="-1.81963">
        <ele>14</ele>
        <time>2023-11-12T08:45:00Z</time>
      </trkpt>
      <trkpt lat="47.16972" lon="-1.81971">
        <ele>15</ele>
        <time>2023-11-12T08:45:23Z</time>
      </trkpt>
      <trkpt lat="47.16953" lon="-1.81969">
        <ele>16</ele>
        <time>2023-11-12T08:45:49Z</time>
      </trkpt>
      <trkpt lat="47.16935" lon="-1.81973">
        <ele>17</ele>
        <time>2023-11-12T08:46:13Z</time>
      </trkpt>
      <trkpt lat="47.16921" lon="-1.81991">
        <ele>18</ele>
        <time>2023-11-12T08:46:38Z</time>
      </trkpt>
      <trkpt lat="47.16904" lon="-1.8204">
        <ele>18</ele>
        <time>2023-11-12T08:47:28Z</time>
      </trkpt>
      <trkpt lat="47.16847" lon="-1.8211">
        <ele>21</ele>
        <time>2023-11-12T08:49:07Z</time>
      </trkpt>
      <trkpt lat="47.16837" lon="-1.82133">
        <ele>21</ele>
        <time>2023-11-12T08:49:32Z</time>
      </trkpt>
      <trkpt lat="47.16802" lon="-1.82196">
        <ele>22</ele>
        <time>2023-11-12T08:50:45Z</time>
      </trkpt>
      <trkpt lat="47.16793" lon="-1.8222">
        <ele>22</ele>
        <time>2023-11-12T08:51:10Z</time>
      </trkpt>
      <trkpt lat="47.16778" lon="-1.82236">
        <ele>22</ele>
        <time>2023-11-12T08:51:35Z</time>
      </trkpt>
      <trkpt lat="47.16731" lon="-1.82323">
        <ele>23</ele>
        <time>2023-11-12T08:53:16Z</time>
      </trkpt>
      <trkpt lat="47.16713" lon="-1.82317">
        <ele>23</ele>
        <time>2023-11-12T08:53:40Z</time>
      </trkpt>
      <trkpt lat="47.16687" lon="-1.82278">
        <ele>24</ele>
        <time>2023-11-12T08:54:30Z</time>
      </trkpt>
      <trkpt lat="47.16666" lon="-1.82234">
        <ele>25</ele>
        <time>2023-11-12T08:55:19Z</time>
      </trkpt>
      <trkpt lat="47.16589" lon="-1.82114">
        <ele>29</ele>
        <time>2023-11-12T08:57:49Z</time>
      </trkpt>
      <trkpt lat="47.16572" lon="-1.82105">
        <ele>30</ele>
        <time>2023-11-12T08:58:13Z</time>
      </trkpt>
      <trkpt lat="47.16519" lon="-1.82128">
        <ele>29</ele>
        <time>2023-11-12T08:59:26Z</time>
      </trkpt>
      <trkpt lat="47.16501" lon="-1.8208">
        <ele>30</ele>
        <time>2023-11-12T09:00:16Z</time>
      </trkpt>
      <trkpt lat="47.1648" lon="-1.82036">
        <ele>30</ele>
        <time>2023-11-12T09:01:05Z</time>
      </trkpt>
      <trkpt lat="47.16463" lon="-1.82024">
        <ele>31</ele>
        <time>2023-11-12T09:01:30Z</time>
      </trkpt>
      <trkpt lat="47.16444" lon="-1.82029">
        <ele>30</ele>
        <time>2023-11-12T09:01:56Z</time>
      </trkpt>
      <trkpt lat="47.16409" lon="-1.82046">
        <ele>30</ele>
        <time>2023-11-12T09:02:45Z</time>
      </trkpt>
      <trkpt lat="47.1636" lon="-1.82086">
        <ele>30</ele>
        <time>2023-11-12T09:04:00Z</time>
      </trkpt>
      <trkpt lat="47.16325" lon="-1.82106">
        <ele>30</ele>
        <time>2023-11-12T09:04:50Z</time>
      </trkpt>
      <trkpt lat="47.16269" lon="-1.82102">
        <ele>30</ele>
        <time>2023-11-12T09:06:05Z</time>
      </trkpt>
      <trkpt lat="47.16196" lon="-1.82091">
        <ele>29</ele>
        <time>2023-11-12T09:07:43Z</time>
      </trkpt>
      <trkpt lat="47.1616" lon="-1.82079">
        <ele>29</ele>
        <time>2023-11-12T09:08:32Z</time>
      </trkpt>
      <trkpt lat="47.16107" lon="-1.82057">
        <ele>29</ele>
        <time>2023-11-12T09:09:45Z</time>
      </trkpt>
      <trkpt lat="47.16091" lon="-1.82072">
        <ele>30</ele>
        <time>2023-11-12T09:10:11Z</time>
      </trkpt>
      <trkpt lat="47.16054" lon="-1.82168">
        <ele>29</ele>
        <time>2023-11-12T09:11:51Z</time>
      </trkpt>
      <trkpt lat="47.16021" lon="-1.82235">
        <ele>29</ele>
        <time>2023-11-12T09:13:06Z</time>
      </trkpt>
      <trkpt lat="47.16012" lon="-1.82258">
        <ele>29</ele>
        <time>2023-11-12T09:13:30Z</time>
      </trkpt>
      <trkpt lat="47.15998" lon="-1.82277">
        <ele>29</ele>
        <time>2023-11-12T09:13:55Z</time>
      </trkpt>
      <trkpt lat="47.15982" lon="-1.82293">
        <ele>29</ele>
        <time>2023-11-12T09:14:21Z</time>
      </trkpt>
      <trkpt lat="47.15965" lon="-1.82304">
        <ele>29</ele>
        <time>2023-11-12T09:14:46Z</time>
      </trkpt>
      <trkpt lat="47.15892" lon="-1.82317">
        <ele>28</ele>
        <time>2023-11-12T09:16:24Z</time>
      </trkpt>
      <trkpt lat="47.15873" lon="-1.82316">
        <ele>28</ele>
        <time>2023-11-12T09:16:49Z</time>
      </trkpt>
      <trkpt lat="47.15857" lon="-1.82302">
        <ele>28</ele>
        <time>2023-11-12T09:17:14Z</time>
      </trkpt>
      <trkpt lat="47.1585" lon="-1.82277">
        <ele>28</ele>
        <time>2023-11-12T09:17:39Z</time>
      </trkpt>
      <trkpt lat="47.15848" lon="-1.82251">
        <ele>28</ele>
        <time>2023-11-12T09:18:03Z</time>
      </trkpt>
      <trkpt lat="47.1583" lon="-1.82144">
        <ele>30</ele>
        <time>2023-11-12T09:19:43Z</time>
      </trkpt>
      <trkpt lat="47.15817" lon="-1.81983">
        <ele>31</ele>
        <time>2023-11-12T09:22:10Z</time>
      </trkpt>
      <trkpt lat="47.15807" lon="-1.8196">
        <ele>31</ele>
        <time>2023-11-12T09:22:35Z</time>
      </trkpt>
      <trkpt lat="47.15789" lon="-1.81953">
        <ele>31</ele>
        <time>2023-11-12T09:22:59Z</time>
      </trkpt>
      <trkpt lat="47.15715" lon="-1.81957">
        <ele>28</ele>
        <time>2023-11-12T09:24:38Z</time>
      </trkpt>
      <trkpt lat="47.15679" lon="-1.81962">
        <ele>27</ele>
        <time>2023-11-12T09:25:26Z</time>
      </trkpt>
      <trkpt lat="47.15641" lon="-1.81961">
        <ele>26</ele>
        <time>2023-11-12T09:26:17Z</time>
      </trkpt>
      <trkpt lat="47.15623" lon="-1.81965">
        <ele>26</ele>
        <time>2023-11-12T09:26:41Z</time>
      </trkpt>
      <trkpt lat="47.15604" lon="-1.81966">
        <ele>25</ele>
        <time>2023-11-12T09:27:07Z</time>
      </trkpt>
      <trkpt lat="47.15606" lon="-1.81938">
        <ele>26</ele>
        <time>2023-11-12T09:27:32Z</time>
      </trkpt>
      <trkpt lat="47.15599" lon="-1.81912">
        <ele>26</ele>
        <time>2023-11-12T09:27:58Z</time>
      </trkpt>
      <trkpt lat="47.15585" lon="-1.81894">
        <ele>27</ele>
        <time>2023-11-12T09:28:23Z</time>
      </trkpt>
      <trkpt lat="47.15569" lon="-1.81845">
        <ele>27</ele>
        <time>2023-11-12T09:29:12Z</time>
      </trkpt>
      <trkpt lat="47.15533" lon="-1.8183">
        <ele>27</ele>
        <time>2023-11-12T09:30:02Z</time>
      </trkpt>
      <trkpt lat="47.15505" lon="-1.81793">
        <ele>27</ele>
        <time>2023-11-12T09:30:52Z</time>
      </trkpt>
      <trkpt lat="47.15489" lon="-1.81779">
        <ele>27</ele>
        <time>2023-11-12T09:31:17Z</time>
      </trkpt>
      <trkpt lat="47.15472" lon="-1.8177">
        <ele>28</ele>
        <time>2023-11-12T09:31:41Z</time>
      </trkpt>
      <trkpt lat="47.15447" lon="-1.8173">
        <ele>29</ele>
        <time>2023-11-12T09:32:30Z</time>
      </trkpt>
      <trkpt lat="47.15432" lon="-1.81714">
        <ele>29</ele>
        <time>2023-11-12T09:32:55Z</time>
      </trkpt>
      <trkpt lat="47.1542" lon="-1.81693">
        <ele>28</ele>
        <time>2023-11-12T09:33:20Z</time>
      </trkpt>
      <trkpt lat="47.15406" lon="-1.81676">
        <ele>28</ele>
        <time>2023-11-12T09:33:44Z</time>
      </trkpt>
      <trkpt lat="47.15335" lon="-1.81643">
        <ele>29</ele>
        <time>2023-11-12T09:35:24Z</time>
      </trkpt>
      <trkpt lat="47.1532" lon="-1.81627">
        <ele>29</ele>
        <time>2023-11-12T09:35:48Z</time>
      </trkpt>
      <trkpt lat="47.15303" lon="-1.81637">
        <ele>29</ele>
        <time>2023-11-12T09:36:13Z</time>
      </trkpt>
      <trkpt lat="47.15278" lon="-1.81709">
        <ele>30</ele>
        <time>2023-11-12T09:37:26Z</time>
      </trkpt>
      <trkpt lat="47.15248" lon="-1.81777">
        <ele>31</ele>
        <time>2023-11-12T09:38:40Z</time>
      </trkpt>
      <trkpt lat="47.15241" lon="-1.81803">
        <ele>32</ele>
        <time>2023-11-12T09:39:05Z</time>
      </trkpt>
      <trkpt lat="47.1523" lon="-1.81828">
        <ele>32</ele>
        <time>2023-11-12T09:39:32Z</time>
      </trkpt>
      <trkpt lat="47.15217" lon="-1.81846">
        <ele>32</ele>
        <time>2023-11-12T09:39:56Z</time>
      </trkpt>
      <trkpt lat="47.1521" lon="-1.81872">
        <ele>32</ele>
        <time>2023-11-12T09:40:21Z</time>
      </trkpt>
      <trkpt lat="47.15217" lon="-1.81897">
        <ele>32</ele>
        <time>2023-11-12T09:40:46Z</time>
      </trkpt>
      <trkpt lat="47.15213" lon="-1.81951">
        <ele>33</ele>
        <time>2023-11-12T09:41:35Z</time>
      </trkpt>
      <trkpt lat="47.15195" lon="-1.82058">
        <ele>34</ele>
        <time>2023-11-12T09:43:15Z</time>
      </trkpt>
      <trkpt lat="47.15187" lon="-1.82082">
        <ele>34</ele>
        <time>2023-11-12T09:43:39Z</time>
      </trkpt>
      <trkpt lat="47.15187" lon="-1.82109">
        <ele>35</ele>
        <time>2023-11-12T09:44:04Z</time>
      </trkpt>
      <trkpt lat="47.15182" lon="-1.82164">
        <ele>35</ele>
        <time>2023-11-12T09:44:54Z</time>
      </trkpt>
      <trkpt lat="47.15185" lon="-1.82245">
        <ele>38</ele>
        <time>2023-11-12T09:46:08Z</time>
      </trkpt>
      <trkpt lat="47.15181" lon="-1.82302">
        <ele>38</ele>
        <time>2023-11-12T09:47:00Z</time>
      </trkpt>
      <trkpt lat="47.15185" lon="-1.82355">
        <ele>37</ele>
        <time>2023-11-12T09:47:48Z</time>
      </trkpt>
      <trkpt lat="47.15225" lon="-1.82536">
        <ele>35</ele>
        <time>2023-11-12T09:50:41Z</time>
      </trkpt>
      <trkpt lat="47.15228" lon="-1.82563">
        <ele>35</ele>
        <time>2023-11-12T09:51:06Z</time>
      </trkpt>
      <trkpt lat="47.15222" lon="-1.82589">
        <ele>35</ele>
        <time>2023-11-12T09:51:31Z</time>
      </trkpt>
      <trkpt lat="47.15243" lon="-1.82634">
        <ele>34</ele>
        <time>2023-11-12T09:52:20Z</time>
      </trkpt>
      <trkpt lat="47.15258" lon="-1.82649">
        <ele>34</ele>
        <time>2023-11-12T09:52:44Z</time>
      </trkpt>
      <trkpt lat="47.15264" lon="-1.82674">
        <ele>33</ele>
        <time>2023-11-12T09:53:08Z</time>
      </trkpt>
      <trkpt lat="47.15276" lon="-1.82696">
        <ele>32</ele>
        <time>2023-11-12T09:53:34Z</time>
      </trkpt>
      <trkpt lat="47.15284" lon="-1.82721">
        <ele>32</ele>
        <time>2023-11-12T09:53:59Z</time>
      </trkpt>
      <trkpt lat="47.15306" lon="-1.82766">
        <ele>31</ele>
        <time>2023-11-12T09:54:49Z</time>
      </trkpt>
      <trkpt lat="47.15329" lon="-1.82842">
        <ele>31</ele>
        <time>2023-11-12T09:56:05Z</time>
      </trkpt>
      <trkpt lat="47.15339" lon="-1.82864">
        <ele>30</ele>
        <time>2023-11-12T09:56:29Z</time>
      </trkpt>
      <trkpt lat="47.15347" lon="-1.8289">
        <ele>29</ele>
        <time>2023-11-12T09:56:55Z</time>
      </trkpt>
      <trkpt lat="47.15333" lon="-1.82907">
        <ele>28</ele>
        <time>2023-11-12T09:57:19Z</time>
      </trkpt>
      <trkpt lat="47.15299" lon="-1.82924">
        <ele>28</ele>
        <time>2023-11-12T09:58:07Z</time>
      </trkpt>
      <trkpt lat="47.15244" lon="-1.82946">
        <ele>28</ele>
        <time>2023-11-12T09:59:23Z</time>
      </trkpt>
      <trkpt lat="47.15169" lon="-1.82961">
        <ele>28</ele>
        <time>2023-11-12T10:01:04Z</time>
      </trkpt>
      <trkpt lat="47.15151" lon="-1.82968">
        <ele>29</ele>
        <time>2023-11-12T10:01:29Z</time>
      </trkpt>
      <trkpt lat="47.15134" lon="-1.82978">
        <ele>29</ele>
        <time>2023-11-12T10:01:53Z</time>
      </trkpt>
      <trkpt lat="47.15116" lon="-1.82973">
        <ele>30</ele>
        <time>2023-11-12T10:02:18Z</time>
      </trkpt>
      <trkpt lat="47.15063" lon="-1.82948">
        <ele>31</ele>
        <time>2023-11-12T10:03:32Z</time>
      </trkpt>
      <trkpt lat="47.15046" lon="-1.82939">
        <ele>30</ele>
        <time>2023-11-12T10:03:56Z</time>
      </trkpt>
      <trkpt lat="47.15029" lon="-1.82925">
        <ele>29</ele>
        <time>2023-11-12T10:04:22Z</time>
      </trkpt>
      <trkpt lat="47.15018" lon="-1.82904">
        <ele>29</ele>
        <time>2023-11-12T10:04:46Z</time>
      </trkpt>
      <trkpt lat="47.15005" lon="-1.82854">
        <ele>31</ele>
        <time>2023-11-12T10:05:35Z</time>
      </trkpt>
      <trkpt lat="47.14987" lon="-1.82854">
        <ele>31</ele>
        <time>2023-11-12T10:05:59Z</time>
      </trkpt>
      <trkpt lat="47.14952" lon="-1.82874">
        <ele>29</ele>
        <time>2023-11-12T10:06:49Z</time>
      </trkpt>
      <trkpt lat="47.14898" lon="-1.82893">
        <ele>27</ele>
        <time>2023-11-12T10:08:03Z</time>
      </trkpt>
      <trkpt lat="47.14881" lon="-1.82903">
        <ele>26</ele>
        <time>2023-11-12T10:08:27Z</time>
      </trkpt>
      <trkpt lat="47.14845" lon="-1.82917">
        <ele>25</ele>
        <time>2023-11-12T10:09:17Z</time>
      </trkpt>
      <trkpt lat="47.14826" lon="-1.82921">
        <ele>25</ele>
        <time>2023-11-12T10:09:43Z</time>
      </trkpt>
      <trkpt lat="47.14808" lon="-1.82923">
        <ele>24</ele>
        <time>2023-11-12T10:10:07Z</time>
      </trkpt>
      <trkpt lat="47.14789" lon="-1.82922">
        <ele>23</ele>
        <time>2023-11-12T10:10:32Z</time>
      </trkpt>
      <trkpt lat="47.14753" lon="-1.8291">
        <ele>21</ele>
        <time>2023-11-12T10:11:21Z</time>
      </trkpt>
      <trkpt lat="47.14734" lon="-1.82911">
        <ele>21</ele>
        <time>2023-11-12T10:11:47Z</time>
      </trkpt>
      <trkpt lat="47.14716" lon="-1.8292">
        <ele>21</ele>
        <time>2023-11-12T10:12:12Z</time>
      </trkpt>
      <trkpt lat="47.14665" lon="-1.82954">
        <ele>19</ele>
        <time>2023-11-12T10:13:27Z</time>
      </trkpt>
      <trkpt lat="47.14652" lon="-1.82973">
        <ele>18</ele>
        <time>2023-11-12T10:13:51Z</time>
      </trkpt>
      <trkpt lat="47.14641" lon="-1.82995">
        <ele>17</ele>
        <time>2023-11-12T10:14:16Z</time>
      </trkpt>
      <trkpt lat="47.14569" lon="-1.83081">
        <ele>16</ele>
        <time>2023-11-12T10:16:20Z</time>
      </trkpt>
      <trkpt lat="47.14556" lon="-1.83101">
        <ele>16</ele>
        <time>2023-11-12T10:16:45Z</time>
      </trkpt>
      <trkpt lat="47.14541" lon="-1.83118">
        <ele>16</ele>
        <time>2023-11-12T10:17:10Z</time>
      </trkpt>
      <trkpt lat="47.14491" lon="-1.83156">
        <ele>17</ele>
        <time>2023-11-12T10:18:25Z</time>
      </trkpt>
      <trkpt lat="47.14476" lon="-1.83171">
        <ele>16</ele>
        <time>2023-11-12T10:18:50Z</time>
      </trkpt>
      <trkpt lat="47.14458" lon="-1.8318">
        <ele>16</ele>
        <time>2023-11-12T10:19:15Z</time>
      </trkpt>
      <trkpt lat="47.1444" lon="-1.83185">
        <ele>15</ele>
        <time>2023-11-12T10:19:39Z</time>
      </trkpt>
      <trkpt lat="47.14384" lon="-1.83188">
        <ele>14</ele>
        <time>2023-11-12T10:20:54Z</time>
      </trkpt>
      <trkpt lat="47.14328" lon="-1.83195">
        <ele>12</ele>
        <time>2023-11-12T10:22:09Z</time>
      </trkpt>
      <trkpt lat="47.1431" lon="-1.83194">
        <ele>11</ele>
        <time>2023-11-12T10:22:33Z</time>
      </trkpt>
      <trkpt lat="47.14292" lon="-1.83187">
        <ele>11</ele>
        <time>2023-11-12T10:22:58Z</time>
      </trkpt>
      <trkpt lat="47.14256" lon="-1.83197">
        <ele>10</ele>
        <time>2023-11-12T10:23:47Z</time>
      </trkpt>
      <trkpt lat="47.14248" lon="-1.83173">
        <ele>11</ele>
        <time>2023-11-12T10:24:11Z</time>
      </trkpt>
      <trkpt lat="47.14248" lon="-1.83147">
        <ele>11</ele>
        <time>2023-11-12T10:24:35Z</time>
      </trkpt>
      <trkpt lat="47.1427" lon="-1.83071">
        <ele>13</ele>
        <time>2023-11-12T10:25:50Z</time>
      </trkpt>
      <trkpt lat="47.14273" lon="-1.83044">
        <ele>13</ele>
        <time>2023-11-12T10:26:15Z</time>
      </trkpt>
      <trkpt lat="47.14268" lon="-1.82989">
        <ele>14</ele>
        <time>2023-11-12T10:27:05Z</time>
      </trkpt>
      <trkpt lat="47.1424" lon="-1.82858">
        <ele>15</ele>
        <time>2023-11-12T10:29:10Z</time>
      </trkpt>
      <trkpt lat="47.14236" lon="-1.82804">
        <ele>14</ele>
        <time>2023-11-12T10:29:59Z</time>
      </trkpt>
      <trkpt lat="47.14219" lon="-1.82793">
        <ele>13</ele>
        <time>2023-11-12T10:30:24Z</time>
      </trkpt>
      <trkpt lat="47.142" lon="-1.82788">
        <ele>13</ele>
        <time>2023-11-12T10:30:50Z</time>
      </trkpt>
      <trkpt lat="47.14183" lon="-1.82778">
        <ele>13</ele>
        <time>2023-11-12T10:31:14Z</time>
      </trkpt>
      <trkpt lat="47.14165" lon="-1.82774">
        <ele>13</ele>
        <time>2023-11-12T10:31:38Z</time>
      </trkpt>
      <trkpt lat="47.14147" lon="-1.82778">
        <ele>13</ele>
        <time>2023-11-12T10:32:03Z</time>
      </trkpt>
      <trkpt lat="47.14116" lon="-1.82807">
        <ele>13</ele>
        <time>2023-11-12T10:32:52Z</time>
      </trkpt>
      <trkpt lat="47.14108" lon="-1.82831">
        <ele>13</ele>
        <time>2023-11-12T10:33:16Z</time>
      </trkpt>
      <trkpt lat="47.14091" lon="-1.82843">
        <ele>13</ele>
        <time>2023-11-12T10:33:41Z</time>
      </trkpt>
      <trkpt lat="47.14056" lon="-1.82858">
        <ele>13</ele>
        <time>2023-11-12T10:34:30Z</time>
      </trkpt>
      <trkpt lat="47.14039" lon="-1.82868">
        <ele>14</ele>
        <time>2023-11-12T10:34:54Z</time>
      </trkpt>
      <trkpt lat="47.14024" lon="-1.82885">
        <ele>14</ele>
        <time>2023-11-12T10:35:19Z</time>
      </trkpt>
      <trkpt lat="47.14006" lon="-1.82892">
        <ele>14</ele>
        <time>2023-11-12T10:35:44Z</time>
      </trkpt>
      <trkpt lat="47.13969" lon="-1.82899">
        <ele>15</ele>
        <time>2023-11-12T10:36:34Z</time>
      </trkpt>
      <trkpt lat="47.13951" lon="-1.82896">
        <ele>15</ele>
        <time>2023-11-12T10:36:58Z</time>
      </trkpt>
      <trkpt lat="47.13947" lon="-1.82921">
        <ele>14</ele>
        <time>2023-11-12T10:37:22Z</time>
      </trkpt>
      <trkpt lat="47.13946" lon="-1.82949">
        <ele>13</ele>
        <time>2023-11-12T10:37:47Z</time>
      </trkpt>
      <trkpt lat="47.13955" lon="-1.83001">
        <ele>11</ele>
        <time>2023-11-12T10:38:36Z</time>
      </trkpt>
      <trkpt lat="47.13933" lon="-1.83105">
        <ele>6</ele>
        <time>2023-11-12T10:40:15Z</time>
      </trkpt>
      <trkpt lat="47.13931" lon="-1.83133">
        <ele>7</ele>
        <time>2023-11-12T10:40:40Z</time>
      </trkpt>
      <trkpt lat="47.13951" lon="-1.83143">
        <ele>7</ele>
        <time>2023-11-12T10:41:08Z</time>
      </trkpt>
      <trkpt lat="47.13928" lon="-1.83146">
        <ele>7</ele>
        <time>2023-11-12T10:41:39Z</time>
      </trkpt>
      <trkpt lat="47.13943" lon="-1.83163">
        <ele>8</ele>
        <time>2023-11-12T10:42:04Z</time>
      </trkpt>
      <trkpt lat="47.1396" lon="-1.83174">
        <ele>8</ele>
        <time>2023-11-12T10:42:29Z</time>
      </trkpt>
      <trkpt lat="47.13971" lon="-1.83254">
        <ele>14</ele>
        <time>2023-11-12T10:43:43Z</time>
      </trkpt>
      <trkpt lat="47.1397" lon="-1.83281">
        <ele>14</ele>
        <time>2023-11-12T10:44:08Z</time>
      </trkpt>
      <trkpt lat="47.13939" lon="-1.83311">
        <ele>16</ele>
        <time>2023-11-12T10:44:57Z</time>
      </trkpt>
      <trkpt lat="47.13928" lon="-1.83332">
        <ele>17</ele>
        <time>2023-11-12T10:45:21Z</time>
      </trkpt>
      <trkpt lat="47.13913" lon="-1.8335">
        <ele>17</ele>
        <time>2023-11-12T10:45:47Z</time>
      </trkpt>
      <trkpt lat="47.13897" lon="-1.83364">
        <ele>17</ele>
        <time>2023-11-12T10:46:12Z</time>
      </trkpt>
      <trkpt lat="47.13859" lon="-1.83363">
        <ele>18</ele>
        <time>2023-11-12T10:47:03Z</time>
      </trkpt>
      <trkpt lat="47.1384" lon="-1.83367">
        <ele>19</ele>
        <time>2023-11-12T10:47:28Z</time>
      </trkpt>
      <trkpt lat="47.13823" lon="-1.83377">
        <ele>19</ele>
        <time>2023-11-12T10:47:53Z</time>
      </trkpt>
      <trkpt lat="47.13815" lon="-1.83401">
        <ele>19</ele>
        <time>2023-11-12T10:48:17Z</time>
      </trkpt>
      <trkpt lat="47.13803" lon="-1.83421">
        <ele>20</ele>
        <time>2023-11-12T10:48:41Z</time>
      </trkpt>
      <trkpt lat="47.13786" lon="-1.83434">
        <ele>20</ele>
        <time>2023-11-12T10:49:07Z</time>
      </trkpt>
      <trkpt lat="47.13774" lon="-1.83456">
        <ele>21</ele>
        <time>2023-11-12T10:49:32Z</time>
      </trkpt>
      <trkpt lat="47.1378" lon="-1.83511">
        <ele>22</ele>
        <time>2023-11-12T10:50:23Z</time>
      </trkpt>
      <trkpt lat="47.13778" lon="-1.83538">
        <ele>23</ele>
        <time>2023-11-12T10:50:48Z</time>
      </trkpt>
      <trkpt lat="47.13744" lon="-1.83749">
        <ele>25</ele>
        <time>2023-11-12T10:54:05Z</time>
      </trkpt>
      <trkpt lat="47.13742" lon="-1.83775">
        <ele>25</ele>
        <time>2023-11-12T10:54:28Z</time>
      </trkpt>
      <trkpt lat="47.13746" lon="-1.83831">
        <ele>26</ele>
        <time>2023-11-12T10:55:19Z</time>
      </trkpt>
      <trkpt lat="47.13753" lon="-1.83884">
        <ele>26</ele>
        <time>2023-11-12T10:56:08Z</time>
      </trkpt>
      <trkpt lat="47.13765" lon="-1.83936">
        <ele>26</ele>
        <time>2023-11-12T10:56:58Z</time>
      </trkpt>
      <trkpt lat="47.13806" lon="-1.84058">
        <ele>26</ele>
        <time>2023-11-12T10:59:02Z</time>
      </trkpt>
      <trkpt lat="47.13814" lon="-1.84112">
        <ele>26</ele>
        <time>2023-11-12T10:59:52Z</time>
      </trkpt>
      <trkpt lat="47.13814" lon="-1.8414">
        <ele>25</ele>
        <time>2023-11-12T11:00:17Z</time>
      </trkpt>
      <trkpt lat="47.13869" lon="-1.84167">
        <ele>25</ele>
        <time>2023-11-12T11:01:35Z</time>
      </trkpt>
      <trkpt lat="47.13953" lon="-1.84219">
        <ele>25</ele>
        <time>2023-11-12T11:03:36Z</time>
      </trkpt>
      <trkpt lat="47.13987" lon="-1.84243">
        <ele>25</ele>
        <time>2023-11-12T11:04:27Z</time>
      </trkpt>
      <trkpt lat="47.14006" lon="-1.84251">
        <ele>25</ele>
        <time>2023-11-12T11:04:53Z</time>
      </trkpt>
      <trkpt lat="47.14041" lon="-1.84272">
        <ele>25</ele>
        <time>2023-11-12T11:05:43Z</time>
      </trkpt>
      <trkpt lat="47.14125" lon="-1.84331">
        <ele>25</ele>
        <time>2023-11-12T11:07:48Z</time>
      </trkpt>
      <trkpt lat="47.14157" lon="-1.84358">
        <ele>26</ele>
        <time>2023-11-12T11:08:37Z</time>
      </trkpt>
      <trkpt lat="47.14242" lon="-1.84415">
        <ele>27</ele>
        <time>2023-11-12T11:10:42Z</time>
      </trkpt>
      <trkpt lat="47.14278" lon="-1.84435">
        <ele>28</ele>
        <time>2023-11-12T11:11:33Z</time>
      </trkpt>
      <trkpt lat="47.14296" lon="-1.8444">
        <ele>28</ele>
        <time>2023-11-12T11:11:57Z</time>
      </trkpt>
      <trkpt lat="47.14314" lon="-1.84439">
        <ele>28</ele>
        <time>2023-11-12T11:12:21Z</time>
      </trkpt>
      <trkpt lat="47.14332" lon="-1.84442">
        <ele>28</ele>
        <time>2023-11-12T11:12:46Z</time>
      </trkpt>
      <trkpt lat="47.14369" lon="-1.84454">
        <ele>29</ele>
        <time>2023-11-12T11:13:36Z</time>
      </trkpt>
      <trkpt lat="47.14387" lon="-1.84463">
        <ele>30</ele>
        <time>2023-11-12T11:14:02Z</time>
      </trkpt>
      <trkpt lat="47.14422" lon="-1.84486">
        <ele>31</ele>
        <time>2023-11-12T11:14:53Z</time>
      </trkpt>
      <trkpt lat="47.14471" lon="-1.84526">
        <ele>32</ele>
        <time>2023-11-12T11:16:08Z</time>
      </trkpt>
      <trkpt lat="47.14522" lon="-1.8456">
        <ele>32</ele>
        <time>2023-11-12T11:17:22Z</time>
      </trkpt>
      <trkpt lat="47.14541" lon="-1.84568">
        <ele>32</ele>
        <time>2023-11-12T11:17:49Z</time>
      </trkpt>
      <trkpt lat="47.14574" lon="-1.84589">
        <ele>30</ele>
        <time>2023-11-12T11:18:37Z</time>
      </trkpt>
      <trkpt lat="47.1459" lon="-1.84601">
        <ele>30</ele>
        <time>2023-11-12T11:19:01Z</time>
      </trkpt>
      <trkpt lat="47.14652" lon="-1.84661">
        <ele>29</ele>
        <time>2023-11-12T11:20:40Z</time>
      </trkpt>
      <trkpt lat="47.14785" lon="-1.84758">
        <ele>31</ele>
        <time>2023-11-12T11:23:58Z</time>
      </trkpt>
      <trkpt lat="47.14849" lon="-1.84815">
        <ele>31</ele>
        <time>2023-11-12T11:25:38Z</time>
      </trkpt>
      <trkpt lat="47.14947" lon="-1.84893">
        <ele>30</ele>
        <time>2023-11-12T11:28:06Z</time>
      </trkpt>
      <trkpt lat="47.14956" lon="-1.84917">
        <ele>30</ele>
        <time>2023-11-12T11:28:31Z</time>
      </trkpt>
      <trkpt lat="47.14947" lon="-1.8494">
        <ele>30</ele>
        <time>2023-11-12T11:28:55Z</time>
      </trkpt>
      <trkpt lat="47.14948" lon="-1.84967">
        <ele>30</ele>
        <time>2023-11-12T11:29:20Z</time>
      </trkpt>
      <trkpt lat="47.1498" lon="-1.84995">
        <ele>31</ele>
        <time>2023-11-12T11:30:10Z</time>
      </trkpt>
      <trkpt lat="47.14998" lon="-1.84997">
        <ele>32</ele>
        <time>2023-11-12T11:30:34Z</time>
      </trkpt>
      <trkpt lat="47.15013" lon="-1.84981">
        <ele>31</ele>
        <time>2023-11-12T11:30:58Z</time>
      </trkpt>
      <trkpt lat="47.15031" lon="-1.84972">
        <ele>31</ele>
        <time>2023-11-12T11:31:24Z</time>
      </trkpt>
      <trkpt lat="47.15048" lon="-1.84985">
        <ele>31</ele>
        <time>2023-11-12T11:31:49Z</time>
      </trkpt>
      <trkpt lat="47.15094" lon="-1.85029">
        <ele>32</ele>
        <time>2023-11-12T11:33:02Z</time>
      </trkpt>
      <trkpt lat="47.15126" lon="-1.85056">
        <ele>33</ele>
        <time>2023-11-12T11:33:52Z</time>
      </trkpt>
      <trkpt lat="47.15176" lon="-1.85097">
        <ele>34</ele>
        <time>2023-11-12T11:35:08Z</time>
      </trkpt>
      <trkpt lat="47.15193" lon="-1.85107">
        <ele>34</ele>
        <time>2023-11-12T11:35:33Z</time>
      </trkpt>
      <trkpt lat="47.1521" lon="-1.85114">
        <ele>34</ele>
        <time>2023-11-12T11:35:56Z</time>
      </trkpt>
      <trkpt lat="47.15229" lon="-1.85116">
        <ele>34</ele>
        <time>2023-11-12T11:36:22Z</time>
      </trkpt>
      <trkpt lat="47.15247" lon="-1.85122">
        <ele>34</ele>
        <time>2023-11-12T11:36:46Z</time>
      </trkpt>
      <trkpt lat="47.15284" lon="-1.85128">
        <ele>33</ele>
        <time>2023-11-12T11:37:36Z</time>
      </trkpt>
      <trkpt lat="47.15339" lon="-1.85146">
        <ele>32</ele>
        <time>2023-11-12T11:38:51Z</time>
      </trkpt>
      <trkpt lat="47.15373" lon="-1.85169">
        <ele>32</ele>
        <time>2023-11-12T11:39:41Z</time>
      </trkpt>
      <trkpt lat="47.1548" lon="-1.85273">
        <ele>36</ele>
        <time>2023-11-12T11:42:32Z</time>
      </trkpt>
      <trkpt lat="47.15538" lon="-1.85347">
        <ele>37</ele>
        <time>2023-11-12T11:44:15Z</time>
      </trkpt>
      <trkpt lat="47.1555" lon="-1.85368">
        <ele>37</ele>
        <time>2023-11-12T11:44:39Z</time>
      </trkpt>
      <trkpt lat="47.15579" lon="-1.85436">
        <ele>37</ele>
        <time>2023-11-12T11:45:52Z</time>
      </trkpt>
      <trkpt lat="47.15663" lon="-1.85545">
        <ele>37</ele>
        <time>2023-11-12T11:48:22Z</time>
      </trkpt>
      <trkpt lat="47.1579" lon="-1.85744">
        <ele>39</ele>
        <time>2023-11-12T11:52:29Z</time>
      </trkpt>
      <trkpt lat="47.15804" lon="-1.8576">
        <ele>39</ele>
        <time>2023-11-12T11:52:53Z</time>
      </trkpt>
      <trkpt lat="47.15815" lon="-1.85781">
        <ele>39</ele>
        <time>2023-11-12T11:53:17Z</time>
      </trkpt>
      <trkpt lat="47.15972" lon="-1.8587">
        <ele>34</ele>
        <time>2023-11-12T11:57:02Z</time>
      </trkpt>
      <trkpt lat="47.16009" lon="-1.8588">
        <ele>33</ele>
        <time>2023-11-12T11:57:52Z</time>
      </trkpt>
      <trkpt lat="47.16048" lon="-1.85885">
        <ele>31</ele>
        <time>2023-11-12T11:58:44Z</time>
      </trkpt>
      <trkpt lat="47.16085" lon="-1.85888">
        <ele>30</ele>
        <time>2023-11-12T11:59:34Z</time>
      </trkpt>
      <trkpt lat="47.16102" lon="-1.85884">
        <ele>30</ele>
        <time>2023-11-12T11:59:57Z</time>
      </trkpt>
      <trkpt lat="47.1612" lon="-1.85874">
        <ele>30</ele>
        <time>2023-11-12T12:00:22Z</time>
      </trkpt>
      <trkpt lat="47.16154" lon="-1.85848">
        <ele>30</ele>
        <time>2023-11-12T12:01:13Z</time>
      </trkpt>
      <trkpt lat="47.1619" lon="-1.85837">
        <ele>30</ele>
        <time>2023-11-12T12:02:02Z</time>
      </trkpt>
      <trkpt lat="47.16226" lon="-1.85821">
        <ele>30</ele>
        <time>2023-11-12T12:02:53Z</time>
      </trkpt>
      <trkpt lat="47.16242" lon="-1.85807">
        <ele>30</ele>
        <time>2023-11-12T12:03:18Z</time>
      </trkpt>
      <trkpt lat="47.1626" lon="-1.85804">
        <ele>30</ele>
        <time>2023-11-12T12:03:42Z</time>
      </trkpt>
      <trkpt lat="47.16296" lon="-1.8579">
        <ele>32</ele>
        <time>2023-11-12T12:04:31Z</time>
      </trkpt>
      <trkpt lat="47.16313" lon="-1.8578">
        <ele>33</ele>
        <time>2023-11-12T12:04:56Z</time>
      </trkpt>
      <trkpt lat="47.16384" lon="-1.8575">
        <ele>34</ele>
        <time>2023-11-12T12:06:34Z</time>
      </trkpt>
      <trkpt lat="47.16402" lon="-1.85744">
        <ele>35</ele>
        <time>2023-11-12T12:06:59Z</time>
      </trkpt>
      <trkpt lat="47.16438" lon="-1.85737">
        <ele>35</ele>
        <time>2023-11-12T12:07:47Z</time>
      </trkpt>
      <trkpt lat="47.1649" lon="-1.85709">
        <ele>35</ele>
        <time>2023-11-12T12:09:01Z</time>
      </trkpt>
      <trkpt lat="47.16563" lon="-1.85683">
        <ele>34</ele>
        <time>2023-11-12T12:10:42Z</time>
      </trkpt>
      <trkpt lat="47.16581" lon="-1.85673">
        <ele>34</ele>
        <time>2023-11-12T12:11:07Z</time>
      </trkpt>
      <trkpt lat="47.16599" lon="-1.85669">
        <ele>34</ele>
        <time>2023-11-12T12:11:32Z</time>
      </trkpt>
      <trkpt lat="47.16616" lon="-1.85659">
        <ele>33</ele>
        <time>2023-11-12T12:11:56Z</time>
      </trkpt>
      <trkpt lat="47.16653" lon="-1.85652">
        <ele>32</ele>
        <time>2023-11-12T12:12:46Z</time>
      </trkpt>
      <trkpt lat="47.16671" lon="-1.85653">
        <ele>32</ele>
        <time>2023-11-12T12:13:10Z</time>
      </trkpt>
      <trkpt lat="47.1669" lon="-1.85646">
        <ele>32</ele>
        <time>2023-11-12T12:13:36Z</time>
      </trkpt>
      <trkpt lat="47.16747" lon="-1.85643">
        <ele>31</ele>
        <time>2023-11-12T12:14:52Z</time>
      </trkpt>
      <trkpt lat="47.16764" lon="-1.85648">
        <ele>30</ele>
        <time>2023-11-12T12:15:15Z</time>
      </trkpt>
      <trkpt lat="47.16798" lon="-1.8567">
        <ele>30</ele>
        <time>2023-11-12T12:16:05Z</time>
      </trkpt>
      <trkpt lat="47.16812" lon="-1.85689">
        <ele>30</ele>
        <time>2023-11-12T12:16:30Z</time>
      </trkpt>
      <trkpt lat="47.16821" lon="-1.85713">
        <ele>30</ele>
        <time>2023-11-12T12:16:55Z</time>
      </trkpt>
      <trkpt lat="47.16835" lon="-1.85731">
        <ele>31</ele>
        <time>2023-11-12T12:17:20Z</time>
      </trkpt>
      <trkpt lat="47.16872" lon="-1.85734">
        <ele>32</ele>
        <time>2023-11-12T12:18:09Z</time>
      </trkpt>
      <trkpt lat="47.16909" lon="-1.85732">
        <ele>33</ele>
        <time>2023-11-12T12:18:59Z</time>
      </trkpt>
      <trkpt lat="47.16927" lon="-1.8574">
        <ele>33</ele>
        <time>2023-11-12T12:19:24Z</time>
      </trkpt>
      <trkpt lat="47.16966" lon="-1.8583">
        <ele>35</ele>
        <time>2023-11-12T12:21:01Z</time>
      </trkpt>
      <trkpt lat="47.16981" lon="-1.8588">
        <ele>36</ele>
        <time>2023-11-12T12:21:50Z</time>
      </trkpt>
      <trkpt lat="47.17024" lon="-1.86">
        <ele>38</ele>
        <time>2023-11-12T12:23:53Z</time>
      </trkpt>
      <trkpt lat="47.17038" lon="-1.8605">
        <ele>39</ele>
        <time>2023-11-12T12:24:42Z</time>
      </trkpt>
      <trkpt lat="47.17058" lon="-1.86096">
        <ele>40</ele>
        <time>2023-11-12T12:25:32Z</time>
      </trkpt>
      <trkpt lat="47.17072" lon="-1.86146">
        <ele>41</ele>
        <time>2023-11-12T12:26:21Z</time>
      </trkpt>
      <trkpt lat="47.17099" lon="-1.86219">
        <ele>40</ele>
        <time>2023-11-12T12:27:36Z</time>
      </trkpt>
      <trkpt lat="47.17114" lon="-1.86269">
        <ele>40</ele>
        <time>2023-11-12T12:28:26Z</time>
      </trkpt>
      <trkpt lat="47.17135" lon="-1.86314">
        <ele>39</ele>
        <time>2023-11-12T12:29:15Z</time>
      </trkpt>
      <trkpt lat="47.1715" lon="-1.86299">
        <ele>39</ele>
        <time>2023-11-12T12:29:40Z</time>
      </trkpt>
      <trkpt lat="47.17174" lon="-1.86258">
        <ele>39</ele>
        <time>2023-11-12T12:30:29Z</time>
      </trkpt>
      <trkpt lat="47.17239" lon="-1.86161">
        <ele>39</ele>
        <time>2023-11-12T12:32:32Z</time>
      </trkpt>
      <trkpt lat="47.17263" lon="-1.86119">
        <ele>39</ele>
        <time>2023-11-12T12:33:22Z</time>
      </trkpt>
      <trkpt lat="47.17337" lon="-1.86033">
        <ele>37</ele>
        <time>2023-11-12T12:35:28Z</time>
      </trkpt>
      <trkpt lat="47.17399" lon="-1.85971">
        <ele>36</ele>
        <time>2023-11-12T12:37:08Z</time>
      </trkpt>
      <trkpt lat="47.17415" lon="-1.85983">
        <ele>35</ele>
        <time>2023-11-12T12:37:32Z</time>
      </trkpt>
      <trkpt lat="47.17427" lon="-1.86005">
        <ele>34</ele>
        <time>2023-11-12T12:37:58Z</time>
      </trkpt>
      <trkpt lat="47.17441" lon="-1.86022">
        <ele>33</ele>
        <time>2023-11-12T12:38:22Z</time>
      </trkpt>
      <trkpt lat="47.17453" lon="-1.86043">
        <ele>31</ele>
        <time>2023-11-12T12:38:47Z</time>
      </trkpt>
      <trkpt lat="47.17473" lon="-1.86088">
        <ele>29</ele>
        <time>2023-11-12T12:39:35Z</time>
      </trkpt>
      <trkpt lat="47.17479" lon="-1.86113">
        <ele>28</ele>
        <time>2023-11-12T12:39:59Z</time>
      </trkpt>
      <trkpt lat="47.17489" lon="-1.86135">
        <ele>27</ele>
        <time>2023-11-12T12:40:23Z</time>
      </trkpt>
      <trkpt lat="47.17535" lon="-1.86219">
        <ele>26</ele>
        <time>2023-11-12T12:42:01Z</time>
      </trkpt>
      <trkpt lat="47.17538" lon="-1.86246">
        <ele>26</ele>
        <time>2023-11-12T12:42:26Z</time>
      </trkpt>
      <trkpt lat="47.17553" lon="-1.86297">
        <ele>27</ele>
        <time>2023-11-12T12:43:17Z</time>
      </trkpt>
      <trkpt lat="47.1757" lon="-1.86304">
        <ele>28</ele>
        <time>2023-11-12T12:43:40Z</time>
      </trkpt>
      <trkpt lat="47.17588" lon="-1.86298">
        <ele>27</ele>
        <time>2023-11-12T12:44:05Z</time>
      </trkpt>
      <trkpt lat="47.17605" lon="-1.86289">
        <ele>26</ele>
        <time>2023-11-12T12:44:29Z</time>
      </trkpt>
      <trkpt lat="47.17621" lon="-1.86278">
        <ele>25</ele>
        <time>2023-11-12T12:44:52Z</time>
      </trkpt>
      <trkpt lat="47.17637" lon="-1.86261">
        <ele>23</ele>
        <time>2023-11-12T12:45:19Z</time>
      </trkpt>
      <trkpt lat="47.17655" lon="-1.86255">
        <ele>22</ele>
        <time>2023-11-12T12:45:43Z</time>
      </trkpt>
      <trkpt lat="47.17692" lon="-1.86251">
        <ele>21</ele>
        <time>2023-11-12T12:46:33Z</time>
      </trkpt>
      <trkpt lat="47.17766" lon="-1.86258">
        <ele>21</ele>
        <time>2023-11-12T12:48:12Z</time>
      </trkpt>
      <trkpt lat="47.17784" lon="-1.86251">
        <ele>21</ele>
        <time>2023-11-12T12:48:37Z</time>
      </trkpt>
      <trkpt lat="47.17816" lon="-1.86226">
        <ele>20</ele>
        <time>2023-11-12T12:49:25Z</time>
      </trkpt>
      <trkpt lat="47.17833" lon="-1.86217">
        <ele>20</ele>
        <time>2023-11-12T12:49:49Z</time>
      </trkpt>
      <trkpt lat="47.17848" lon="-1.862">
        <ele>20</ele>
        <time>2023-11-12T12:50:14Z</time>
      </trkpt>
      <trkpt lat="47.17881" lon="-1.86178">
        <ele>20</ele>
        <time>2023-11-12T12:51:03Z</time>
      </trkpt>
      <trkpt lat="47.17911" lon="-1.86148">
        <ele>20</ele>
        <time>2023-11-12T12:51:51Z</time>
      </trkpt>
      <trkpt lat="47.17929" lon="-1.8614">
        <ele>19</ele>
        <time>2023-11-12T12:52:16Z</time>
      </trkpt>
      <trkpt lat="47.17947" lon="-1.86137">
        <ele>19</ele>
        <time>2023-11-12T12:52:40Z</time>
      </trkpt>
      <trkpt lat="47.18" lon="-1.86118">
        <ele>19</ele>
        <time>2023-11-12T12:53:53Z</time>
      </trkpt>
      <trkpt lat="47.18037" lon="-1.86112">
        <ele>18</ele>
        <time>2023-11-12T12:54:43Z</time>
      </trkpt>
      <trkpt lat="47.18055" lon="-1.86104">
        <ele>17</ele>
        <time>2023-11-12T12:55:08Z</time>
      </trkpt>
      <trkpt lat="47.18089" lon="-1.86082">
        <ele>16</ele>
        <time>2023-11-12T12:55:58Z</time>
      </trkpt>
      <trkpt lat="47.18125" lon="-1.86068">
        <ele>16</ele>
        <time>2023-11-12T12:56:47Z</time>
      </trkpt>
      <trkpt lat="47.18142" lon="-1.86056">
        <ele>16</ele>
        <time>2023-11-12T12:57:12Z</time>
      </trkpt>
      <trkpt lat="47.1816" lon="-1.86051">
        <ele>17</ele>
        <time>2023-11-12T12:57:37Z</time>
      </trkpt>
      <trkpt lat="47.18176" lon="-1.86038">
        <ele>17</ele>
        <time>2023-11-12T12:58:01Z</time>
      </trkpt>
      <trkpt lat="47.18187" lon="-1.86015">
        <ele>16</ele>
        <time>2023-11-12T12:58:27Z</time>
      </trkpt>
      <trkpt lat="47.18192" lon="-1.85989">
        <ele>16</ele>
        <time>2023-11-12T12:58:51Z</time>
      </trkpt>
      <trkpt lat="47.18217" lon="-1.85949">
        <ele>16</ele>
        <time>2023-11-12T12:59:41Z</time>
      </trkpt>
      <trkpt lat="47.18233" lon="-1.85934">
        <ele>16</ele>
        <time>2023-11-12T13:00:06Z</time>
      </trkpt>
      <trkpt lat="47.1825" lon="-1.85923">
        <ele>16</ele>
        <time>2023-11-12T13:00:31Z</time>
      </trkpt>
      <trkpt lat="47.18266" lon="-1.85937">
        <ele>16</ele>
        <time>2023-11-12T13:00:55Z</time>
      </trkpt>
      <trkpt lat="47.18277" lon="-1.8596">
        <ele>17</ele>
        <time>2023-11-12T13:01:21Z</time>
      </trkpt>
      <trkpt lat="47.18295" lon="-1.85963">
        <ele>17</ele>
        <time>2023-11-12T13:01:45Z</time>
      </trkpt>
      <trkpt lat="47.18312" lon="-1.85953">
        <ele>17</ele>
        <time>2023-11-12T13:02:10Z</time>
      </trkpt>
      <trkpt lat="47.18322" lon="-1.85929">
        <ele>17</ele>
        <time>2023-11-12T13:02:35Z</time>
      </trkpt>
      <trkpt lat="47.18339" lon="-1.85918">
        <ele>17</ele>
        <time>2023-11-12T13:03:00Z</time>
      </trkpt>
      <trkpt lat="47.18369" lon="-1.85888">
        <ele>15</ele>
        <time>2023-11-12T13:03:48Z</time>
      </trkpt>
      <trkpt lat="47.18387" lon="-1.85884">
        <ele>15</ele>
        <time>2023-11-12T13:04:13Z</time>
      </trkpt>
      <trkpt lat="47.18403" lon="-1.85868">
        <ele>14</ele>
        <time>2023-11-12T13:04:38Z</time>
      </trkpt>
      <trkpt lat="47.18421" lon="-1.85868">
        <ele>13</ele>
        <time>2023-11-12T13:05:02Z</time>
      </trkpt>
      <trkpt lat="47.1845" lon="-1.859">
        <ele>14</ele>
        <time>2023-11-12T13:05:51Z</time>
      </trkpt>
      <trkpt lat="47.18493" lon="-1.85987">
        <ele>18</ele>
        <time>2023-11-12T13:07:28Z</time>
      </trkpt>
      <trkpt lat="47.18507" lon="-1.86004">
        <ele>17</ele>
        <time>2023-11-12T13:07:53Z</time>
      </trkpt>
      <trkpt lat="47.18524" lon="-1.86016">
        <ele>16</ele>
        <time>2023-11-12T13:08:18Z</time>
      </trkpt>
      <trkpt lat="47.18542" lon="-1.86022">
        <ele>15</ele>
        <time>2023-11-12T13:08:42Z</time>
      </trkpt>
      <trkpt lat="47.1856" lon="-1.86011">
        <ele>14</ele>
        <time>2023-11-12T13:09:08Z</time>
      </trkpt>
      <trkpt lat="47.18584" lon="-1.85969">
        <ele>12</ele>
        <time>2023-11-12T13:09:58Z</time>
      </trkpt>
      <trkpt lat="47.18616" lon="-1.85939">
        <ele>9</ele>
        <time>2023-11-12T13:10:49Z</time>
      </trkpt>
      <trkpt lat="47.18629" lon="-1.8592">
        <ele>7</ele>
        <time>2023-11-12T13:11:13Z</time>
      </trkpt>
      <trkpt lat="47.18631" lon="-1.85866">
        <ele>4</ele>
        <time>2023-11-12T13:12:02Z</time>
      </trkpt>
      <trkpt lat="47.1864" lon="-1.8589">
        <ele>5</ele>
        <time>2023-11-12T13:12:27Z</time>
      </trkpt>
      <trkpt lat="47.18673" lon="-1.85866">
        <ele>2</ele>
        <time>2023-11-12T13:13:16Z</time>
      </trkpt>
      <trkpt lat="47.18692" lon="-1.85863">
        <ele>1</ele>
        <time>2023-11-12T13:13:42Z</time>
      </trkpt>
      <trkpt lat="47.18728" lon="-1.85848">
        <ele>1.4</ele>
        <time>2023-11-12T13:14:32Z</time>
      </trkpt>
      <trkpt lat="47.18794" lon="-1.85796">
        <ele>-1</ele>
        <time>2023-11-12T13:16:12Z</time>
      </trkpt>
      <trkpt lat="47.18943" lon="-1.85689">
        <ele>1</ele>
        <time>2023-11-12T13:19:53Z</time>
      </trkpt>
      <trkpt lat="47.18959" lon="-1.85675">
        <ele>1</ele>
        <time>2023-11-12T13:20:18Z</time>
      </trkpt>
      <trkpt lat="47.19009" lon="-1.85643">
        <ele>1</ele>
        <time>2023-11-12T13:21:30Z</time>
      </trkpt>
      <trkpt lat="47.19025" lon="-1.8563">
        <ele>2</ele>
        <time>2023-11-12T13:21:55Z</time>
      </trkpt>
      <trkpt lat="47.19035" lon="-1.85654">
        <ele>2</ele>
        <time>2023-11-12T13:22:20Z</time>
      </trkpt>
      <trkpt lat="47.19049" lon="-1.85674">
        <ele>2</ele>
        <time>2023-11-12T13:22:46Z</time>
      </trkpt>
      <trkpt lat="47.1906" lon="-1.85695">
        <ele>2</ele>
        <time>2023-11-12T13:23:10Z</time>
      </trkpt>
      <trkpt lat="47.19075" lon="-1.8571">
        <ele>2</ele>
        <time>2023-11-12T13:23:35Z</time>
      </trkpt>
      <trkpt lat="47.19112" lon="-1.85721">
        <ele>2</ele>
        <time>2023-11-12T13:24:25Z</time>
      </trkpt>
      <trkpt lat="47.1915" lon="-1.85726">
        <ele>4</ele>
        <time>2023-11-12T13:25:16Z</time>
      </trkpt>
      <trkpt lat="47.19168" lon="-1.85731">
        <ele>4</ele>
        <time>2023-11-12T13:25:40Z</time>
      </trkpt>
      <trkpt lat="47.19185" lon="-1.8572">
        <ele>4</ele>
        <time>2023-11-12T13:26:05Z</time>
      </trkpt>
      <trkpt lat="47.19194" lon="-1.85696">
        <ele>4</ele>
        <time>2023-11-12T13:26:30Z</time>
      </trkpt>
      <trkpt lat="47.19232" lon="-1.85635">
        <ele>3</ele>
        <time>2023-11-12T13:27:45Z</time>
      </trkpt>
      <trkpt lat="47.19249" lon="-1.85586">
        <ele>3</ele>
        <time>2023-11-12T13:28:35Z</time>
      </trkpt>
      <trkpt lat="47.19255" lon="-1.8556">
        <ele>3</ele>
        <time>2023-11-12T13:29:00Z</time>
      </trkpt>
      <trkpt lat="47.1926" lon="-1.85506">
        <ele>3</ele>
        <time>2023-11-12T13:29:49Z</time>
      </trkpt>
      <trkpt lat="47.19258" lon="-1.85478">
        <ele>3</ele>
        <time>2023-11-12T13:30:15Z</time>
      </trkpt>
      <trkpt lat="47.19243" lon="-1.85429">
        <ele>3</ele>
        <time>2023-11-12T13:31:04Z</time>
      </trkpt>
    </trkseg>
  </trk>
  <trk>
    <name><![CDATA[Rouans_BoucleMaraisAcheneau_13.5km-8372014]]></name>
    <extensions>
      <line xmlns="http://www.topografix.com/GPX/gpx_style/0/2">
        <color>00FF00</color>
        <width>4</width>
      </line>
    </extensions>
    <trkseg>
      <trkpt lat="47.18368" lon="-1.85898">
        <ele>16</ele>
        <time>2023-11-12T06:24:10Z</time>
      </trkpt>
      <trkpt lat="47.18289" lon="-1.85764">
        <ele>16</ele>
        <time>2023-11-12T06:26:51Z</time>
      </trkpt>
      <trkpt lat="47.18154" lon="-1.85339">
        <ele>10</ele>
        <time>2023-11-12T06:33:56Z</time>
      </trkpt>
      <trkpt lat="47.18156" lon="-1.85282">
        <ele>8</ele>
        <time>2023-11-12T06:34:48Z</time>
      </trkpt>
      <trkpt lat="47.18124" lon="-1.85216">
        <ele>7</ele>
        <time>2023-11-12T06:36:02Z</time>
      </trkpt>
      <trkpt lat="47.18079" lon="-1.85148">
        <ele>5</ele>
        <time>2023-11-12T06:37:28Z</time>
      </trkpt>
      <trkpt lat="47.1798" lon="-1.84891">
        <ele>2</ele>
        <time>2023-11-12T06:41:56Z</time>
      </trkpt>
      <trkpt lat="47.17772" lon="-1.84294">
        <ele>2</ele>
        <time>2023-11-12T06:52:04Z</time>
      </trkpt>
      <trkpt lat="47.17735" lon="-1.84303">
        <ele>2</ele>
        <time>2023-11-12T06:52:54Z</time>
      </trkpt>
      <trkpt lat="47.17702" lon="-1.84279">
        <ele>3</ele>
        <time>2023-11-12T06:53:43Z</time>
      </trkpt>
      <trkpt lat="47.17607" lon="-1.84319">
        <ele>2</ele>
        <time>2023-11-12T06:55:55Z</time>
      </trkpt>
      <trkpt lat="47.17605" lon="-1.84319">
        <ele>2</ele>
        <time>2023-11-12T06:55:58Z</time>
      </trkpt>
      <trkpt lat="47.17539" lon="-1.84308">
        <ele>6</ele>
        <time>2023-11-12T06:57:27Z</time>
      </trkpt>
      <trkpt lat="47.17515" lon="-1.84345">
        <ele>7</ele>
        <time>2023-11-12T06:58:13Z</time>
      </trkpt>
      <trkpt lat="47.17499" lon="-1.84494">
        <ele>1</ele>
        <time>2023-11-12T07:00:30Z</time>
      </trkpt>
      <trkpt lat="47.17397" lon="-1.84604">
        <ele>2</ele>
        <time>2023-11-12T07:03:19Z</time>
      </trkpt>
      <trkpt lat="47.17135" lon="-1.84586">
        <ele>24</ele>
        <time>2023-11-12T07:09:09Z</time>
      </trkpt>
      <trkpt lat="47.17142" lon="-1.84362">
        <ele>20</ele>
        <time>2023-11-12T07:12:32Z</time>
      </trkpt>
      <trkpt lat="47.1714" lon="-1.84207">
        <ele>23</ele>
        <time>2023-11-12T07:14:53Z</time>
      </trkpt>
      <trkpt lat="47.17077" lon="-1.84145">
        <ele>26</ele>
        <time>2023-11-12T07:16:34Z</time>
      </trkpt>
      <trkpt lat="47.1702" lon="-1.8404">
        <ele>28</ele>
        <time>2023-11-12T07:18:36Z</time>
      </trkpt>
      <trkpt lat="47.16973" lon="-1.83788">
        <ele>31</ele>
        <time>2023-11-12T07:22:33Z</time>
      </trkpt>
      <trkpt lat="47.16833" lon="-1.83538">
        <ele>31</ele>
        <time>2023-11-12T07:27:27Z</time>
      </trkpt>
      <trkpt lat="47.16766" lon="-1.8334">
        <ele>25</ele>
        <time>2023-11-12T07:30:47Z</time>
      </trkpt>
      <trkpt lat="47.16734" lon="-1.8329">
        <ele>24</ele>
        <time>2023-11-12T07:31:50Z</time>
      </trkpt>
      <trkpt lat="47.16639" lon="-1.83204">
        <ele>18</ele>
        <time>2023-11-12T07:34:18Z</time>
      </trkpt>
      <trkpt lat="47.16635" lon="-1.83156">
        <ele>16</ele>
        <time>2023-11-12T07:35:02Z</time>
      </trkpt>
      <trkpt lat="47.16635" lon="-1.83154">
        <ele>16</ele>
        <time>2023-11-12T07:35:04Z</time>
      </trkpt>
      <trkpt lat="47.16694" lon="-1.83066">
        <ele>14</ele>
        <time>2023-11-12T07:36:56Z</time>
      </trkpt>
      <trkpt lat="47.16574" lon="-1.82766">
        <ele>5</ele>
        <time>2023-11-12T07:42:12Z</time>
      </trkpt>
      <trkpt lat="47.16801" lon="-1.82656">
        <ele>4</ele>
        <time>2023-11-12T07:47:31Z</time>
      </trkpt>
      <trkpt lat="47.16966" lon="-1.82518">
        <ele>4</ele>
        <time>2023-11-12T07:51:44Z</time>
      </trkpt>
      <trkpt lat="47.17029" lon="-1.82404">
        <ele>4</ele>
        <time>2023-11-12T07:53:58Z</time>
      </trkpt>
      <trkpt lat="47.1702" lon="-1.82312">
        <ele>6</ele>
        <time>2023-11-12T07:55:22Z</time>
      </trkpt>
      <trkpt lat="47.17036" lon="-1.82176">
        <ele>9</ele>
        <time>2023-11-12T07:57:27Z</time>
      </trkpt>
      <trkpt lat="47.17038" lon="-1.82176">
        <ele>9</ele>
        <time>2023-11-12T07:57:30Z</time>
      </trkpt>
      <trkpt lat="47.17128" lon="-1.82075">
        <ele>4</ele>
        <time>2023-11-12T08:00:01Z</time>
      </trkpt>
      <trkpt lat="47.1718" lon="-1.81871">
        <ele>3</ele>
        <time>2023-11-12T08:03:18Z</time>
      </trkpt>
      <trkpt lat="47.17235" lon="-1.81696">
        <ele>1</ele>
        <time>2023-11-12T08:06:13Z</time>
      </trkpt>
      <trkpt lat="47.17145" lon="-1.81619">
        <ele>3</ele>
        <time>2023-11-12T08:08:32Z</time>
      </trkpt>
      <trkpt lat="47.17351" lon="-1.8135">
        <ele>1.5</ele>
        <time>2023-11-12T08:14:40Z</time>
      </trkpt>
      <trkpt lat="47.17351" lon="-1.81352">
        <ele>1.5</ele>
        <time>2023-11-12T08:14:42Z</time>
      </trkpt>
      <trkpt lat="47.1759" lon="-1.8138">
        <ele>3</ele>
        <time>2023-11-12T08:20:02Z</time>
      </trkpt>
      <trkpt lat="47.1759" lon="-1.81437">
        <ele>3</ele>
        <time>2023-11-12T08:20:53Z</time>
      </trkpt>
      <trkpt lat="47.17671" lon="-1.81521">
        <ele>5</ele>
        <time>2023-11-12T08:23:06Z</time>
      </trkpt>
      <trkpt lat="47.17737" lon="-1.81571">
        <ele>5</ele>
        <time>2023-11-12T08:24:45Z</time>
      </trkpt>
      <trkpt lat="47.17834" lon="-1.8156">
        <ele>3</ele>
        <time>2023-11-12T08:26:54Z</time>
      </trkpt>
      <trkpt lat="47.17928" lon="-1.81527">
        <ele>5</ele>
        <time>2023-11-12T08:29:03Z</time>
      </trkpt>
      <trkpt lat="47.1803" lon="-1.81567">
        <ele>6</ele>
        <time>2023-11-12T08:31:24Z</time>
      </trkpt>
      <trkpt lat="47.18044" lon="-1.8165">
        <ele>4</ele>
        <time>2023-11-12T08:32:42Z</time>
      </trkpt>
      <trkpt lat="47.18043" lon="-1.81769">
        <ele>2</ele>
        <time>2023-11-12T08:34:30Z</time>
      </trkpt>
      <trkpt lat="47.18069" lon="-1.81854">
        <ele>2</ele>
        <time>2023-11-12T08:35:54Z</time>
      </trkpt>
      <trkpt lat="47.18069" lon="-1.81856">
        <ele>2</ele>
        <time>2023-11-12T08:35:56Z</time>
      </trkpt>
      <trkpt lat="47.18075" lon="-1.82218">
        <ele>1</ele>
        <time>2023-11-12T08:41:25Z</time>
      </trkpt>
      <trkpt lat="47.18159" lon="-1.8226">
        <ele>2</ele>
        <time>2023-11-12T08:43:23Z</time>
      </trkpt>
      <trkpt lat="47.18159" lon="-1.82258">
        <ele>3</ele>
        <time>2023-11-12T08:43:25Z</time>
      </trkpt>
      <trkpt lat="47.1821" lon="-1.8222">
        <ele>3</ele>
        <time>2023-11-12T08:44:41Z</time>
      </trkpt>
      <trkpt lat="47.18233" lon="-1.82181">
        <ele>4</ele>
        <time>2023-11-12T08:45:28Z</time>
      </trkpt>
      <trkpt lat="47.18332" lon="-1.82238">
        <ele>3</ele>
        <time>2023-11-12T08:47:50Z</time>
      </trkpt>
      <trkpt lat="47.18334" lon="-1.82321">
        <ele>4</ele>
        <time>2023-11-12T08:49:05Z</time>
      </trkpt>
      <trkpt lat="47.18271" lon="-1.82367">
        <ele>3</ele>
        <time>2023-11-12T08:50:39Z</time>
      </trkpt>
      <trkpt lat="47.18267" lon="-1.82416">
        <ele>4</ele>
        <time>2023-11-12T08:51:24Z</time>
      </trkpt>
      <trkpt lat="47.18308" lon="-1.82466">
        <ele>4</ele>
        <time>2023-11-12T08:52:35Z</time>
      </trkpt>
      <trkpt lat="47.18281" lon="-1.82508">
        <ele>3</ele>
        <time>2023-11-12T08:53:27Z</time>
      </trkpt>
      <trkpt lat="47.18265" lon="-1.82598">
        <ele>3</ele>
        <time>2023-11-12T08:54:52Z</time>
      </trkpt>
      <trkpt lat="47.18271" lon="-1.82681">
        <ele>3</ele>
        <time>2023-11-12T08:56:07Z</time>
      </trkpt>
      <trkpt lat="47.18332" lon="-1.82817">
        <ele>4</ele>
        <time>2023-11-12T08:58:35Z</time>
      </trkpt>
      <trkpt lat="47.18334" lon="-1.82881">
        <ele>5</ele>
        <time>2023-11-12T08:59:33Z</time>
      </trkpt>
      <trkpt lat="47.18267" lon="-1.82986">
        <ele>3</ele>
        <time>2023-11-12T09:01:44Z</time>
      </trkpt>
      <trkpt lat="47.18157" lon="-1.83001">
        <ele>4</ele>
        <time>2023-11-12T09:04:11Z</time>
      </trkpt>
      <trkpt lat="47.18139" lon="-1.83027">
        <ele>3</ele>
        <time>2023-11-12T09:04:45Z</time>
      </trkpt>
      <trkpt lat="47.18125" lon="-1.83085">
        <ele>2</ele>
        <time>2023-11-12T09:05:41Z</time>
      </trkpt>
      <trkpt lat="47.18125" lon="-1.83087">
        <ele>2</ele>
        <time>2023-11-12T09:05:43Z</time>
      </trkpt>
      <trkpt lat="47.18175" lon="-1.83251">
        <ele>2</ele>
        <time>2023-11-12T09:08:26Z</time>
      </trkpt>
      <trkpt lat="47.18245" lon="-1.8337">
        <ele>4</ele>
        <time>2023-11-12T09:10:48Z</time>
      </trkpt>
      <trkpt lat="47.18335" lon="-1.83416">
        <ele>5</ele>
        <time>2023-11-12T09:12:55Z</time>
      </trkpt>
      <trkpt lat="47.18449" lon="-1.83394">
        <ele>5</ele>
        <time>2023-11-12T09:15:29Z</time>
      </trkpt>
      <trkpt lat="47.18407" lon="-1.83488">
        <ele>4</ele>
        <time>2023-11-12T09:17:11Z</time>
      </trkpt>
      <trkpt lat="47.18321" lon="-1.8358">
        <ele>2</ele>
        <time>2023-11-12T09:19:33Z</time>
      </trkpt>
      <trkpt lat="47.18321" lon="-1.8365">
        <ele>2</ele>
        <time>2023-11-12T09:20:36Z</time>
      </trkpt>
      <trkpt lat="47.18396" lon="-1.8381">
        <ele>3</ele>
        <time>2023-11-12T09:23:33Z</time>
      </trkpt>
      <trkpt lat="47.18477" lon="-1.83903">
        <ele>4</ele>
        <time>2023-11-12T09:25:50Z</time>
      </trkpt>
      <trkpt lat="47.18599" lon="-1.83802">
        <ele>6</ele>
        <time>2023-11-12T09:28:56Z</time>
      </trkpt>
      <trkpt lat="47.18616" lon="-1.83742">
        <ele>6</ele>
        <time>2023-11-12T09:29:55Z</time>
      </trkpt>
      <trkpt lat="47.18628" lon="-1.83644">
        <ele>9</ele>
        <time>2023-11-12T09:31:26Z</time>
      </trkpt>
      <trkpt lat="47.18856" lon="-1.8356">
        <ele>11</ele>
        <time>2023-11-12T09:36:39Z</time>
      </trkpt>
      <trkpt lat="47.18858" lon="-1.8356">
        <ele>11</ele>
        <time>2023-11-12T09:36:42Z</time>
      </trkpt>
      <trkpt lat="47.1912" lon="-1.83484">
        <ele>15</ele>
        <time>2023-11-12T09:42:38Z</time>
      </trkpt>
      <trkpt lat="47.19131" lon="-1.83736">
        <ele>11</ele>
        <time>2023-11-12T09:46:27Z</time>
      </trkpt>
      <trkpt lat="47.19183" lon="-1.83918">
        <ele>12</ele>
        <time>2023-11-12T09:49:26Z</time>
      </trkpt>
      <trkpt lat="47.19205" lon="-1.84038">
        <ele>10</ele>
        <time>2023-11-12T09:51:19Z</time>
      </trkpt>
      <trkpt lat="47.19193" lon="-1.84106">
        <ele>8</ele>
        <time>2023-11-12T09:52:23Z</time>
      </trkpt>
      <trkpt lat="47.19191" lon="-1.84106">
        <ele>8</ele>
        <time>2023-11-12T09:52:26Z</time>
      </trkpt>
      <trkpt lat="47.19105" lon="-1.84145">
        <ele>3</ele>
        <time>2023-11-12T09:54:26Z</time>
      </trkpt>
      <trkpt lat="47.18774" lon="-1.84356">
        <ele>-1</ele>
        <time>2023-11-12T10:02:27Z</time>
      </trkpt>
      <trkpt lat="47.18963" lon="-1.84924">
        <ele>1.3</ele>
        <time>2023-11-12T10:12:01Z</time>
      </trkpt>
      <trkpt lat="47.18963" lon="-1.84926">
        <ele>1.3</ele>
        <time>2023-11-12T10:12:02Z</time>
      </trkpt>
      <trkpt lat="47.19011" lon="-1.84946">
        <ele>1</ele>
        <time>2023-11-12T10:13:09Z</time>
      </trkpt>
      <trkpt lat="47.19078" lon="-1.84918">
        <ele>3</ele>
        <time>2023-11-12T10:14:42Z</time>
      </trkpt>
      <trkpt lat="47.1914" lon="-1.84944">
        <ele>3</ele>
        <time>2023-11-12T10:16:08Z</time>
      </trkpt>
      <trkpt lat="47.19164" lon="-1.85097">
        <ele>1</ele>
        <time>2023-11-12T10:18:30Z</time>
      </trkpt>
      <trkpt lat="47.19164" lon="-1.851">
        <ele>1</ele>
        <time>2023-11-12T10:18:33Z</time>
      </trkpt>
      <trkpt lat="47.19194" lon="-1.85214">
        <ele>3</ele>
        <time>2023-11-12T10:20:24Z</time>
      </trkpt>
      <trkpt lat="47.19254" lon="-1.85317">
        <ele>4</ele>
        <time>2023-11-12T10:22:27Z</time>
      </trkpt>
      <trkpt lat="47.19216" lon="-1.85383">
        <ele>4</ele>
        <time>2023-11-12T10:23:45Z</time>
      </trkpt>
      <trkpt lat="47.19259" lon="-1.85479">
        <ele>3</ele>
        <time>2023-11-12T10:25:30Z</time>
      </trkpt>
      <trkpt lat="47.19254" lon="-1.85569">
        <ele>3</ele>
        <time>2023-11-12T10:26:52Z</time>
      </trkpt>
      <trkpt lat="47.19178" lon="-1.85729">
        <ele>4</ele>
        <time>2023-11-12T10:29:49Z</time>
      </trkpt>
      <trkpt lat="47.19069" lon="-1.85709">
        <ele>2</ele>
        <time>2023-11-12T10:32:15Z</time>
      </trkpt>
      <trkpt lat="47.19015" lon="-1.85619">
        <ele>2</ele>
        <time>2023-11-12T10:34:04Z</time>
      </trkpt>
      <trkpt lat="47.18632" lon="-1.85911">
        <ele>7</ele>
        <time>2023-11-12T10:43:40Z</time>
      </trkpt>
      <trkpt lat="47.18587" lon="-1.8594">
        <ele>11</ele>
        <time>2023-11-12T10:44:45Z</time>
      </trkpt>
      <trkpt lat="47.18537" lon="-1.86058">
        <ele>15</ele>
        <time>2023-11-12T10:46:51Z</time>
      </trkpt>
      <trkpt lat="47.18504" lon="-1.86122">
        <ele>15</ele>
        <time>2023-11-12T10:48:04Z</time>
      </trkpt>
      <trkpt lat="47.18422" lon="-1.86152">
        <ele>18</ele>
        <time>2023-11-12T10:49:57Z</time>
      </trkpt>
      <trkpt lat="47.1837" lon="-1.859">
        <ele>16</ele>
        <time>2023-11-12T10:53:56Z</time>
      </trkpt>
    </trkseg>
  </trk>
  <trk>
    <name><![CDATA[Rouans_AR MessanCheix_10.7km-8371104]]></name>
    <extensions>
      <line xmlns="http://www.topografix.com/GPX/gpx_style/0/2">
        <color>FF0000</color>
        <width>4</width>
      </line>
    </extensions>
    <trkseg>
      <trkpt lat="47.19246" lon="-1.85392">
        <ele>3</ele>
        <time>2023-11-12T06:24:02Z</time>
      </trkpt>
      <trkpt lat="47.19247" lon="-1.85394">
        <ele>3</ele>
        <time>2023-11-12T06:24:04Z</time>
      </trkpt>
      <trkpt lat="47.19246" lon="-1.85392">
        <ele>3</ele>
        <time>2023-11-12T06:24:07Z</time>
      </trkpt>
      <trkpt lat="47.19246" lon="-1.85394">
        <ele>3</ele>
        <time>2023-11-12T06:24:08Z</time>
      </trkpt>
      <trkpt lat="47.19251" lon="-1.85402">
        <ele>3</ele>
        <time>2023-11-12T06:24:18Z</time>
      </trkpt>
      <trkpt lat="47.19274" lon="-1.85429">
        <ele>3</ele>
        <time>2023-11-12T06:24:57Z</time>
      </trkpt>
      <trkpt lat="47.19265" lon="-1.85416">
        <ele>3</ele>
        <time>2023-11-12T06:25:14Z</time>
      </trkpt>
      <trkpt lat="47.19255" lon="-1.8541">
        <ele>3</ele>
        <time>2023-11-12T06:25:29Z</time>
      </trkpt>
      <trkpt lat="47.19253" lon="-1.85412">
        <ele>3</ele>
        <time>2023-11-12T06:25:32Z</time>
      </trkpt>
      <trkpt lat="47.19235" lon="-1.85372">
        <ele>4</ele>
        <time>2023-11-12T06:26:15Z</time>
      </trkpt>
      <trkpt lat="47.19233" lon="-1.85358">
        <ele>4</ele>
        <time>2023-11-12T06:26:28Z</time>
      </trkpt>
      <trkpt lat="47.19251" lon="-1.85317">
        <ele>4</ele>
        <time>2023-11-12T06:27:13Z</time>
      </trkpt>
      <trkpt lat="47.19246" lon="-1.85303">
        <ele>4</ele>
        <time>2023-11-12T06:27:27Z</time>
      </trkpt>
      <trkpt lat="47.19243" lon="-1.853">
        <ele>4</ele>
        <time>2023-11-12T06:27:32Z</time>
      </trkpt>
      <trkpt lat="47.19229" lon="-1.8528">
        <ele>4</ele>
        <time>2023-11-12T06:27:58Z</time>
      </trkpt>
      <trkpt lat="47.19203" lon="-1.85213">
        <ele>3</ele>
        <time>2023-11-12T06:29:08Z</time>
      </trkpt>
      <trkpt lat="47.192" lon="-1.85198">
        <ele>3</ele>
        <time>2023-11-12T06:29:22Z</time>
      </trkpt>
      <trkpt lat="47.19178" lon="-1.85119">
        <ele>2</ele>
        <time>2023-11-12T06:30:39Z</time>
      </trkpt>
      <trkpt lat="47.19164" lon="-1.85028">
        <ele>2</ele>
        <time>2023-11-12T06:32:04Z</time>
      </trkpt>
      <trkpt lat="47.19164" lon="-1.85005">
        <ele>2</ele>
        <time>2023-11-12T06:32:25Z</time>
      </trkpt>
      <trkpt lat="47.19158" lon="-1.84975">
        <ele>3</ele>
        <time>2023-11-12T06:32:53Z</time>
      </trkpt>
      <trkpt lat="47.19152" lon="-1.84962">
        <ele>3</ele>
        <time>2023-11-12T06:33:08Z</time>
      </trkpt>
      <trkpt lat="47.19134" lon="-1.84935">
        <ele>4</ele>
        <time>2023-11-12T06:33:42Z</time>
      </trkpt>
      <trkpt lat="47.19072" lon="-1.84911">
        <ele>3</ele>
        <time>2023-11-12T06:35:07Z</time>
      </trkpt>
      <trkpt lat="47.19066" lon="-1.84905">
        <ele>2</ele>
        <time>2023-11-12T06:35:17Z</time>
      </trkpt>
      <trkpt lat="47.19061" lon="-1.84882">
        <ele>2</ele>
        <time>2023-11-12T06:35:39Z</time>
      </trkpt>
      <trkpt lat="47.19058" lon="-1.84836">
        <ele>2</ele>
        <time>2023-11-12T06:36:21Z</time>
      </trkpt>
      <trkpt lat="47.19062" lon="-1.84805">
        <ele>2</ele>
        <time>2023-11-12T06:36:49Z</time>
      </trkpt>
      <trkpt lat="47.19066" lon="-1.84791">
        <ele>2</ele>
        <time>2023-11-12T06:37:03Z</time>
      </trkpt>
      <trkpt lat="47.19076" lon="-1.84774">
        <ele>1</ele>
        <time>2023-11-12T06:37:24Z</time>
      </trkpt>
      <trkpt lat="47.19094" lon="-1.84759">
        <ele>1</ele>
        <time>2023-11-12T06:37:51Z</time>
      </trkpt>
      <trkpt lat="47.19133" lon="-1.84746">
        <ele>2</ele>
        <time>2023-11-12T06:38:45Z</time>
      </trkpt>
      <trkpt lat="47.19143" lon="-1.84727">
        <ele>3</ele>
        <time>2023-11-12T06:39:06Z</time>
      </trkpt>
      <trkpt lat="47.19142" lon="-1.84714">
        <ele>3</ele>
        <time>2023-11-12T06:39:18Z</time>
      </trkpt>
      <trkpt lat="47.19134" lon="-1.84673">
        <ele>3</ele>
        <time>2023-11-12T06:39:57Z</time>
      </trkpt>
      <trkpt lat="47.19135" lon="-1.84643">
        <ele>3</ele>
        <time>2023-11-12T06:40:24Z</time>
      </trkpt>
      <trkpt lat="47.19131" lon="-1.84611">
        <ele>3</ele>
        <time>2023-11-12T06:40:54Z</time>
      </trkpt>
      <trkpt lat="47.19123" lon="-1.84585">
        <ele>2</ele>
        <time>2023-11-12T06:41:20Z</time>
      </trkpt>
      <trkpt lat="47.19111" lon="-1.84561">
        <ele>2</ele>
        <time>2023-11-12T06:41:47Z</time>
      </trkpt>
      <trkpt lat="47.19107" lon="-1.84545">
        <ele>2</ele>
        <time>2023-11-12T06:42:02Z</time>
      </trkpt>
      <trkpt lat="47.19103" lon="-1.84498">
        <ele>3</ele>
        <time>2023-11-12T06:42:45Z</time>
      </trkpt>
      <trkpt lat="47.19105" lon="-1.84441">
        <ele>3</ele>
        <time>2023-11-12T06:43:37Z</time>
      </trkpt>
      <trkpt lat="47.19111" lon="-1.84392">
        <ele>3</ele>
        <time>2023-11-12T06:44:22Z</time>
      </trkpt>
      <trkpt lat="47.1911" lon="-1.84378">
        <ele>3</ele>
        <time>2023-11-12T06:44:35Z</time>
      </trkpt>
      <trkpt lat="47.19113" lon="-1.84359">
        <ele>3</ele>
        <time>2023-11-12T06:44:52Z</time>
      </trkpt>
      <trkpt lat="47.19111" lon="-1.84315">
        <ele>3</ele>
        <time>2023-11-12T06:45:32Z</time>
      </trkpt>
      <trkpt lat="47.19104" lon="-1.8425">
        <ele>3</ele>
        <time>2023-11-12T06:46:32Z</time>
      </trkpt>
      <trkpt lat="47.19106" lon="-1.84192">
        <ele>3</ele>
        <time>2023-11-12T06:47:25Z</time>
      </trkpt>
      <trkpt lat="47.1911" lon="-1.84162">
        <ele>3</ele>
        <time>2023-11-12T06:47:52Z</time>
      </trkpt>
      <trkpt lat="47.19118" lon="-1.84147">
        <ele>4</ele>
        <time>2023-11-12T06:48:10Z</time>
      </trkpt>
      <trkpt lat="47.19133" lon="-1.84134">
        <ele>6</ele>
        <time>2023-11-12T06:48:33Z</time>
      </trkpt>
      <trkpt lat="47.19167" lon="-1.84121">
        <ele>8</ele>
        <time>2023-11-12T06:49:20Z</time>
      </trkpt>
      <trkpt lat="47.19188" lon="-1.84119">
        <ele>8</ele>
        <time>2023-11-12T06:49:48Z</time>
      </trkpt>
      <trkpt lat="47.19197" lon="-1.84114">
        <ele>8</ele>
        <time>2023-11-12T06:50:01Z</time>
      </trkpt>
      <trkpt lat="47.19207" lon="-1.8406">
        <ele>9</ele>
        <time>2023-11-12T06:50:51Z</time>
      </trkpt>
      <trkpt lat="47.19208" lon="-1.84044">
        <ele>10</ele>
        <time>2023-11-12T06:51:06Z</time>
      </trkpt>
      <trkpt lat="47.19208" lon="-1.84031">
        <ele>10</ele>
        <time>2023-11-12T06:51:18Z</time>
      </trkpt>
      <trkpt lat="47.19205" lon="-1.84025">
        <ele>10</ele>
        <time>2023-11-12T06:51:25Z</time>
      </trkpt>
      <trkpt lat="47.19202" lon="-1.84005">
        <ele>11</ele>
        <time>2023-11-12T06:51:43Z</time>
      </trkpt>
      <trkpt lat="47.19202" lon="-1.83988">
        <ele>11</ele>
        <time>2023-11-12T06:51:59Z</time>
      </trkpt>
      <trkpt lat="47.19193" lon="-1.83944">
        <ele>11</ele>
        <time>2023-11-12T06:52:40Z</time>
      </trkpt>
      <trkpt lat="47.1915" lon="-1.83792">
        <ele>11</ele>
        <time>2023-11-12T06:55:10Z</time>
      </trkpt>
      <trkpt lat="47.19151" lon="-1.83788">
        <ele>11</ele>
        <time>2023-11-12T06:55:13Z</time>
      </trkpt>
      <trkpt lat="47.19135" lon="-1.83691">
        <ele>10</ele>
        <time>2023-11-12T06:56:44Z</time>
      </trkpt>
      <trkpt lat="47.19129" lon="-1.83605">
        <ele>10</ele>
        <time>2023-11-12T06:58:02Z</time>
      </trkpt>
      <trkpt lat="47.1913" lon="-1.83586">
        <ele>11</ele>
        <time>2023-11-12T06:58:20Z</time>
      </trkpt>
      <trkpt lat="47.19123" lon="-1.83519">
        <ele>14</ele>
        <time>2023-11-12T06:59:21Z</time>
      </trkpt>
      <trkpt lat="47.19119" lon="-1.83502">
        <ele>14</ele>
        <time>2023-11-12T06:59:37Z</time>
      </trkpt>
      <trkpt lat="47.19112" lon="-1.83496">
        <ele>14</ele>
        <time>2023-11-12T06:59:48Z</time>
      </trkpt>
      <trkpt lat="47.19107" lon="-1.83494">
        <ele>14</ele>
        <time>2023-11-12T06:59:55Z</time>
      </trkpt>
      <trkpt lat="47.19085" lon="-1.83501">
        <ele>14</ele>
        <time>2023-11-12T07:00:25Z</time>
      </trkpt>
      <trkpt lat="47.19075" lon="-1.83507">
        <ele>13</ele>
        <time>2023-11-12T07:00:40Z</time>
      </trkpt>
      <trkpt lat="47.19023" lon="-1.83518">
        <ele>13</ele>
        <time>2023-11-12T07:01:50Z</time>
      </trkpt>
      <trkpt lat="47.18956" lon="-1.83539">
        <ele>11</ele>
        <time>2023-11-12T07:03:21Z</time>
      </trkpt>
      <trkpt lat="47.18882" lon="-1.83558">
        <ele>11</ele>
        <time>2023-11-12T07:05:01Z</time>
      </trkpt>
      <trkpt lat="47.18879" lon="-1.8356">
        <ele>11</ele>
        <time>2023-11-12T07:05:06Z</time>
      </trkpt>
      <trkpt lat="47.18796" lon="-1.83589">
        <ele>11</ele>
        <time>2023-11-12T07:07:00Z</time>
      </trkpt>
      <trkpt lat="47.18752" lon="-1.83609">
        <ele>11</ele>
        <time>2023-11-12T07:08:01Z</time>
      </trkpt>
      <trkpt lat="47.18722" lon="-1.83619">
        <ele>11</ele>
        <time>2023-11-12T07:08:42Z</time>
      </trkpt>
      <trkpt lat="47.18692" lon="-1.83624">
        <ele>10</ele>
        <time>2023-11-12T07:09:22Z</time>
      </trkpt>
      <trkpt lat="47.18648" lon="-1.83639">
        <ele>9</ele>
        <time>2023-11-12T07:10:23Z</time>
      </trkpt>
      <trkpt lat="47.18632" lon="-1.83651">
        <ele>8</ele>
        <time>2023-11-12T07:10:47Z</time>
      </trkpt>
      <trkpt lat="47.18624" lon="-1.83647">
        <ele>8</ele>
        <time>2023-11-12T07:10:58Z</time>
      </trkpt>
      <trkpt lat="47.18626" lon="-1.8365">
        <ele>8</ele>
        <time>2023-11-12T07:11:02Z</time>
      </trkpt>
      <trkpt lat="47.18624" lon="-1.83663">
        <ele>8</ele>
        <time>2023-11-12T07:11:14Z</time>
      </trkpt>
      <trkpt lat="47.18628" lon="-1.83697">
        <ele>7</ele>
        <time>2023-11-12T07:11:45Z</time>
      </trkpt>
      <trkpt lat="47.18628" lon="-1.83735">
        <ele>6</ele>
        <time>2023-11-12T07:12:20Z</time>
      </trkpt>
      <trkpt lat="47.18616" lon="-1.83775">
        <ele>6</ele>
        <time>2023-11-12T07:12:59Z</time>
      </trkpt>
      <trkpt lat="47.18592" lon="-1.8381">
        <ele>6</ele>
        <time>2023-11-12T07:13:44Z</time>
      </trkpt>
      <trkpt lat="47.18554" lon="-1.83845">
        <ele>6</ele>
        <time>2023-11-12T07:14:44Z</time>
      </trkpt>
      <trkpt lat="47.18516" lon="-1.83879">
        <ele>5</ele>
        <time>2023-11-12T07:15:43Z</time>
      </trkpt>
      <trkpt lat="47.18497" lon="-1.83891">
        <ele>5</ele>
        <time>2023-11-12T07:16:11Z</time>
      </trkpt>
      <trkpt lat="47.18477" lon="-1.83893">
        <ele>4</ele>
        <time>2023-11-12T07:16:38Z</time>
      </trkpt>
      <trkpt lat="47.18449" lon="-1.83871">
        <ele>3</ele>
        <time>2023-11-12T07:17:20Z</time>
      </trkpt>
      <trkpt lat="47.18429" lon="-1.83852">
        <ele>3</ele>
        <time>2023-11-12T07:17:52Z</time>
      </trkpt>
      <trkpt lat="47.18403" lon="-1.83815">
        <ele>3</ele>
        <time>2023-11-12T07:18:40Z</time>
      </trkpt>
      <trkpt lat="47.18373" lon="-1.83759">
        <ele>2</ele>
        <time>2023-11-12T07:19:45Z</time>
      </trkpt>
      <trkpt lat="47.1835" lon="-1.83709">
        <ele>2</ele>
        <time>2023-11-12T07:20:40Z</time>
      </trkpt>
      <trkpt lat="47.18345" lon="-1.83694">
        <ele>2</ele>
        <time>2023-11-12T07:20:55Z</time>
      </trkpt>
      <trkpt lat="47.1834" lon="-1.83686">
        <ele>2</ele>
        <time>2023-11-12T07:21:05Z</time>
      </trkpt>
      <trkpt lat="47.18332" lon="-1.83657">
        <ele>2</ele>
        <time>2023-11-12T07:21:33Z</time>
      </trkpt>
      <trkpt lat="47.1833" lon="-1.83614">
        <ele>2</ele>
        <time>2023-11-12T07:22:12Z</time>
      </trkpt>
      <trkpt lat="47.18338" lon="-1.83581">
        <ele>3</ele>
        <time>2023-11-12T07:22:44Z</time>
      </trkpt>
      <trkpt lat="47.18352" lon="-1.83565">
        <ele>3</ele>
        <time>2023-11-12T07:23:08Z</time>
      </trkpt>
      <trkpt lat="47.18363" lon="-1.83556">
        <ele>4</ele>
        <time>2023-11-12T07:23:24Z</time>
      </trkpt>
      <trkpt lat="47.18372" lon="-1.83539">
        <ele>4</ele>
        <time>2023-11-12T07:23:44Z</time>
      </trkpt>
      <trkpt lat="47.18385" lon="-1.83526">
        <ele>4</ele>
        <time>2023-11-12T07:24:05Z</time>
      </trkpt>
      <trkpt lat="47.18412" lon="-1.83476">
        <ele>4</ele>
        <time>2023-11-12T07:25:03Z</time>
      </trkpt>
      <trkpt lat="47.18417" lon="-1.83465">
        <ele>4</ele>
        <time>2023-11-12T07:25:15Z</time>
      </trkpt>
      <trkpt lat="47.18426" lon="-1.83444">
        <ele>5</ele>
        <time>2023-11-12T07:25:37Z</time>
      </trkpt>
      <trkpt lat="47.18431" lon="-1.83417">
        <ele>5</ele>
        <time>2023-11-12T07:26:03Z</time>
      </trkpt>
      <trkpt lat="47.18429" lon="-1.83402">
        <ele>5</ele>
        <time>2023-11-12T07:26:17Z</time>
      </trkpt>
      <trkpt lat="47.18419" lon="-1.834">
        <ele>5</ele>
        <time>2023-11-12T07:26:30Z</time>
      </trkpt>
      <trkpt lat="47.18409" lon="-1.83404">
        <ele>5</ele>
        <time>2023-11-12T07:26:44Z</time>
      </trkpt>
      <trkpt lat="47.18407" lon="-1.83405">
        <ele>5</ele>
        <time>2023-11-12T07:26:47Z</time>
      </trkpt>
      <trkpt lat="47.184" lon="-1.83406">
        <ele>5</ele>
        <time>2023-11-12T07:26:56Z</time>
      </trkpt>
      <trkpt lat="47.18392" lon="-1.83412">
        <ele>5</ele>
        <time>2023-11-12T07:27:08Z</time>
      </trkpt>
      <trkpt lat="47.18378" lon="-1.83404">
        <ele>5</ele>
        <time>2023-11-12T07:27:28Z</time>
      </trkpt>
      <trkpt lat="47.1835" lon="-1.83397">
        <ele>5</ele>
        <time>2023-11-12T07:28:06Z</time>
      </trkpt>
      <trkpt lat="47.18333" lon="-1.83403">
        <ele>5</ele>
        <time>2023-11-12T07:28:29Z</time>
      </trkpt>
      <trkpt lat="47.18319" lon="-1.83407">
        <ele>5</ele>
        <time>2023-11-12T07:28:48Z</time>
      </trkpt>
      <trkpt lat="47.18315" lon="-1.83406">
        <ele>5</ele>
        <time>2023-11-12T07:28:54Z</time>
      </trkpt>
      <trkpt lat="47.18294" lon="-1.83412">
        <ele>4</ele>
        <time>2023-11-12T07:29:22Z</time>
      </trkpt>
      <trkpt lat="47.1827" lon="-1.83394">
        <ele>4</ele>
        <time>2023-11-12T07:29:58Z</time>
      </trkpt>
      <trkpt lat="47.18245" lon="-1.83374">
        <ele>4</ele>
        <time>2023-11-12T07:30:36Z</time>
      </trkpt>
      <trkpt lat="47.18236" lon="-1.83354">
        <ele>4</ele>
        <time>2023-11-12T07:30:58Z</time>
      </trkpt>
      <trkpt lat="47.18201" lon="-1.83301">
        <ele>3</ele>
        <time>2023-11-12T07:32:05Z</time>
      </trkpt>
      <trkpt lat="47.18185" lon="-1.83258">
        <ele>3</ele>
        <time>2023-11-12T07:32:49Z</time>
      </trkpt>
      <trkpt lat="47.18163" lon="-1.83224">
        <ele>2</ele>
        <time>2023-11-12T07:33:32Z</time>
      </trkpt>
      <trkpt lat="47.18159" lon="-1.83213">
        <ele>2</ele>
        <time>2023-11-12T07:33:43Z</time>
      </trkpt>
      <trkpt lat="47.1816" lon="-1.83179">
        <ele>2</ele>
        <time>2023-11-12T07:34:14Z</time>
      </trkpt>
      <trkpt lat="47.18146" lon="-1.83119">
        <ele>2</ele>
        <time>2023-11-12T07:35:12Z</time>
      </trkpt>
      <trkpt lat="47.18132" lon="-1.8308">
        <ele>2</ele>
        <time>2023-11-12T07:35:52Z</time>
      </trkpt>
      <trkpt lat="47.18133" lon="-1.83054">
        <ele>2</ele>
        <time>2023-11-12T07:36:15Z</time>
      </trkpt>
      <trkpt lat="47.18139" lon="-1.83031">
        <ele>3</ele>
        <time>2023-11-12T07:36:38Z</time>
      </trkpt>
      <trkpt lat="47.1815" lon="-1.83017">
        <ele>3</ele>
        <time>2023-11-12T07:36:57Z</time>
      </trkpt>
      <trkpt lat="47.18159" lon="-1.83013">
        <ele>4</ele>
        <time>2023-11-12T07:37:10Z</time>
      </trkpt>
      <trkpt lat="47.18161" lon="-1.83009">
        <ele>4</ele>
        <time>2023-11-12T07:37:14Z</time>
      </trkpt>
      <trkpt lat="47.18185" lon="-1.82999">
        <ele>4</ele>
        <time>2023-11-12T07:37:47Z</time>
      </trkpt>
      <trkpt lat="47.18191" lon="-1.82995">
        <ele>4</ele>
        <time>2023-11-12T07:37:56Z</time>
      </trkpt>
      <trkpt lat="47.182" lon="-1.82998">
        <ele>4</ele>
        <time>2023-11-12T07:38:09Z</time>
      </trkpt>
      <trkpt lat="47.18204" lon="-1.82996">
        <ele>3</ele>
        <time>2023-11-12T07:38:14Z</time>
      </trkpt>
      <trkpt lat="47.18247" lon="-1.82997">
        <ele>3</ele>
        <time>2023-11-12T07:39:12Z</time>
      </trkpt>
      <trkpt lat="47.18281" lon="-1.8297">
        <ele>4</ele>
        <time>2023-11-12T07:40:03Z</time>
      </trkpt>
      <trkpt lat="47.18292" lon="-1.82949">
        <ele>4</ele>
        <time>2023-11-12T07:40:27Z</time>
      </trkpt>
      <trkpt lat="47.18296" lon="-1.82929">
        <ele>4</ele>
        <time>2023-11-12T07:40:46Z</time>
      </trkpt>
      <trkpt lat="47.18312" lon="-1.82904">
        <ele>4</ele>
        <time>2023-11-12T07:41:17Z</time>
      </trkpt>
      <trkpt lat="47.18323" lon="-1.82895">
        <ele>4</ele>
        <time>2023-11-12T07:41:34Z</time>
      </trkpt>
      <trkpt lat="47.18332" lon="-1.82881">
        <ele>5</ele>
        <time>2023-11-12T07:41:52Z</time>
      </trkpt>
      <trkpt lat="47.18329" lon="-1.82865">
        <ele>4</ele>
        <time>2023-11-12T07:42:07Z</time>
      </trkpt>
      <trkpt lat="47.18323" lon="-1.82807">
        <ele>4</ele>
        <time>2023-11-12T07:43:00Z</time>
      </trkpt>
      <trkpt lat="47.18302" lon="-1.82757">
        <ele>3</ele>
        <time>2023-11-12T07:43:53Z</time>
      </trkpt>
      <trkpt lat="47.18297" lon="-1.82732">
        <ele>3</ele>
        <time>2023-11-12T07:44:17Z</time>
      </trkpt>
      <trkpt lat="47.18279" lon="-1.82686">
        <ele>3</ele>
        <time>2023-11-12T07:45:05Z</time>
      </trkpt>
      <trkpt lat="47.18276" lon="-1.82656">
        <ele>3</ele>
        <time>2023-11-12T07:45:32Z</time>
      </trkpt>
      <trkpt lat="47.18272" lon="-1.82634">
        <ele>3</ele>
        <time>2023-11-12T07:45:53Z</time>
      </trkpt>
      <trkpt lat="47.1827" lon="-1.8261">
        <ele>3</ele>
        <time>2023-11-12T07:46:15Z</time>
      </trkpt>
      <trkpt lat="47.18275" lon="-1.82551">
        <ele>3</ele>
        <time>2023-11-12T07:47:09Z</time>
      </trkpt>
      <trkpt lat="47.18277" lon="-1.82543">
        <ele>3</ele>
        <time>2023-11-12T07:47:17Z</time>
      </trkpt>
      <trkpt lat="47.18278" lon="-1.82538">
        <ele>3</ele>
        <time>2023-11-12T07:47:21Z</time>
      </trkpt>
      <trkpt lat="47.18288" lon="-1.82517">
        <ele>4</ele>
        <time>2023-11-12T07:47:45Z</time>
      </trkpt>
      <trkpt lat="47.18308" lon="-1.82489">
        <ele>4</ele>
        <time>2023-11-12T07:48:21Z</time>
      </trkpt>
      <trkpt lat="47.18315" lon="-1.82472">
        <ele>4</ele>
        <time>2023-11-12T07:48:40Z</time>
      </trkpt>
      <trkpt lat="47.183" lon="-1.8245">
        <ele>4</ele>
        <time>2023-11-12T07:49:08Z</time>
      </trkpt>
      <trkpt lat="47.18294" lon="-1.82444">
        <ele>4</ele>
        <time>2023-11-12T07:49:17Z</time>
      </trkpt>
      <trkpt lat="47.18278" lon="-1.82414">
        <ele>4</ele>
        <time>2023-11-12T07:49:52Z</time>
      </trkpt>
      <trkpt lat="47.18278" lon="-1.82387">
        <ele>4</ele>
        <time>2023-11-12T07:50:17Z</time>
      </trkpt>
      <trkpt lat="47.18283" lon="-1.82374">
        <ele>3</ele>
        <time>2023-11-12T07:50:30Z</time>
      </trkpt>
      <trkpt lat="47.18304" lon="-1.82359">
        <ele>3</ele>
        <time>2023-11-12T07:51:01Z</time>
      </trkpt>
      <trkpt lat="47.18313" lon="-1.82347">
        <ele>4</ele>
        <time>2023-11-12T07:51:17Z</time>
      </trkpt>
      <trkpt lat="47.18336" lon="-1.82326">
        <ele>4</ele>
        <time>2023-11-12T07:51:54Z</time>
      </trkpt>
      <trkpt lat="47.1834" lon="-1.82318">
        <ele>4</ele>
        <time>2023-11-12T07:52:03Z</time>
      </trkpt>
      <trkpt lat="47.18342" lon="-1.82289">
        <ele>4</ele>
        <time>2023-11-12T07:52:29Z</time>
      </trkpt>
      <trkpt lat="47.1834" lon="-1.82266">
        <ele>3</ele>
        <time>2023-11-12T07:52:50Z</time>
      </trkpt>
      <trkpt lat="47.18327" lon="-1.82238">
        <ele>3</ele>
        <time>2023-11-12T07:53:21Z</time>
      </trkpt>
      <trkpt lat="47.18265" lon="-1.82204">
        <ele>3</ele>
        <time>2023-11-12T07:54:49Z</time>
      </trkpt>
      <trkpt lat="47.18238" lon="-1.82193">
        <ele>4</ele>
        <time>2023-11-12T07:55:26Z</time>
      </trkpt>
      <trkpt lat="47.18228" lon="-1.82194">
        <ele>4</ele>
        <time>2023-11-12T07:55:40Z</time>
      </trkpt>
      <trkpt lat="47.18208" lon="-1.82222">
        <ele>3</ele>
        <time>2023-11-12T07:56:17Z</time>
      </trkpt>
      <trkpt lat="47.18201" lon="-1.82236">
        <ele>2</ele>
        <time>2023-11-12T07:56:32Z</time>
      </trkpt>
      <trkpt lat="47.1819" lon="-1.82243">
        <ele>2</ele>
        <time>2023-11-12T07:56:48Z</time>
      </trkpt>
      <trkpt lat="47.18174" lon="-1.82258">
        <ele>2</ele>
        <time>2023-11-12T07:57:14Z</time>
      </trkpt>
      <trkpt lat="47.1816" lon="-1.82264">
        <ele>2</ele>
        <time>2023-11-12T07:57:33Z</time>
      </trkpt>
      <trkpt lat="47.18147" lon="-1.82267">
        <ele>2</ele>
        <time>2023-11-12T07:57:51Z</time>
      </trkpt>
      <trkpt lat="47.18129" lon="-1.82256">
        <ele>2</ele>
        <time>2023-11-12T07:58:17Z</time>
      </trkpt>
      <trkpt lat="47.18111" lon="-1.82241">
        <ele>2</ele>
        <time>2023-11-12T07:58:44Z</time>
      </trkpt>
      <trkpt lat="47.18092" lon="-1.82229">
        <ele>1</ele>
        <time>2023-11-12T07:59:12Z</time>
      </trkpt>
      <trkpt lat="47.18089" lon="-1.82224">
        <ele>1</ele>
        <time>2023-11-12T07:59:18Z</time>
      </trkpt>
      <trkpt lat="47.18083" lon="-1.82223">
        <ele>1</ele>
        <time>2023-11-12T07:59:26Z</time>
      </trkpt>
      <trkpt lat="47.18078" lon="-1.82216">
        <ele>1</ele>
        <time>2023-11-12T07:59:35Z</time>
      </trkpt>
      <trkpt lat="47.18075" lon="-1.8219">
        <ele>1</ele>
        <time>2023-11-12T07:59:59Z</time>
      </trkpt>
      <trkpt lat="47.1808" lon="-1.82093">
        <ele>2</ele>
        <time>2023-11-12T08:01:27Z</time>
      </trkpt>
      <trkpt lat="47.1808" lon="-1.82047">
        <ele>2</ele>
        <time>2023-11-12T08:02:09Z</time>
      </trkpt>
      <trkpt lat="47.18082" lon="-1.82025">
        <ele>2</ele>
        <time>2023-11-12T08:02:29Z</time>
      </trkpt>
      <trkpt lat="47.18079" lon="-1.81935">
        <ele>3</ele>
        <time>2023-11-12T08:03:51Z</time>
      </trkpt>
      <trkpt lat="47.18081" lon="-1.81907">
        <ele>3</ele>
        <time>2023-11-12T08:04:17Z</time>
      </trkpt>
      <trkpt lat="47.18077" lon="-1.81843">
        <ele>3</ele>
        <time>2023-11-12T08:05:15Z</time>
      </trkpt>
      <trkpt lat="47.18054" lon="-1.81754">
        <ele>3</ele>
        <time>2023-11-12T08:06:41Z</time>
      </trkpt>
      <trkpt lat="47.18048" lon="-1.81644">
        <ele>5</ele>
        <time>2023-11-12T08:08:21Z</time>
      </trkpt>
      <trkpt lat="47.18049" lon="-1.81645">
        <ele>5</ele>
        <time>2023-11-12T08:08:23Z</time>
      </trkpt>
      <trkpt lat="47.1807" lon="-1.81636">
        <ele>6</ele>
        <time>2023-11-12T08:08:52Z</time>
      </trkpt>
      <trkpt lat="47.18082" lon="-1.81636">
        <ele>7</ele>
        <time>2023-11-12T08:09:08Z</time>
      </trkpt>
      <trkpt lat="47.18103" lon="-1.8164">
        <ele>8</ele>
        <time>2023-11-12T08:09:36Z</time>
      </trkpt>
      <trkpt lat="47.18116" lon="-1.81635">
        <ele>9</ele>
        <time>2023-11-12T08:09:54Z</time>
      </trkpt>
      <trkpt lat="47.1812" lon="-1.81629">
        <ele>10</ele>
        <time>2023-11-12T08:10:02Z</time>
      </trkpt>
      <trkpt lat="47.18119" lon="-1.81616">
        <ele>10</ele>
        <time>2023-11-12T08:10:14Z</time>
      </trkpt>
      <trkpt lat="47.18123" lon="-1.81611">
        <ele>10</ele>
        <time>2023-11-12T08:10:21Z</time>
      </trkpt>
      <trkpt lat="47.18124" lon="-1.81603">
        <ele>11</ele>
        <time>2023-11-12T08:10:28Z</time>
      </trkpt>
      <trkpt lat="47.18128" lon="-1.81593">
        <ele>11</ele>
        <time>2023-11-12T08:10:39Z</time>
      </trkpt>
      <trkpt lat="47.18138" lon="-1.81586">
        <ele>12</ele>
        <time>2023-11-12T08:10:54Z</time>
      </trkpt>
      <trkpt lat="47.18149" lon="-1.81594">
        <ele>13</ele>
        <time>2023-11-12T08:11:10Z</time>
      </trkpt>
      <trkpt lat="47.18163" lon="-1.81594">
        <ele>13</ele>
        <time>2023-11-12T08:11:29Z</time>
      </trkpt>
      <trkpt lat="47.18159" lon="-1.8159">
        <ele>13</ele>
        <time>2023-11-12T08:11:35Z</time>
      </trkpt>
      <trkpt lat="47.18162" lon="-1.81581">
        <ele>14</ele>
        <time>2023-11-12T08:11:44Z</time>
      </trkpt>
      <trkpt lat="47.1816" lon="-1.8157">
        <ele>14</ele>
        <time>2023-11-12T08:11:54Z</time>
      </trkpt>
      <trkpt lat="47.18164" lon="-1.81591">
        <ele>14</ele>
        <time>2023-11-12T08:12:14Z</time>
      </trkpt>
      <trkpt lat="47.18169" lon="-1.81605">
        <ele>13</ele>
        <time>2023-11-12T08:12:29Z</time>
      </trkpt>
      <trkpt lat="47.18176" lon="-1.81614">
        <ele>13</ele>
        <time>2023-11-12T08:12:41Z</time>
      </trkpt>
      <trkpt lat="47.18191" lon="-1.81619">
        <ele>12</ele>
        <time>2023-11-12T08:13:01Z</time>
      </trkpt>
      <trkpt lat="47.18192" lon="-1.81622">
        <ele>12</ele>
        <time>2023-11-12T08:13:05Z</time>
      </trkpt>
      <trkpt lat="47.18192" lon="-1.81641">
        <ele>12</ele>
        <time>2023-11-12T08:13:22Z</time>
      </trkpt>
      <trkpt lat="47.18187" lon="-1.81655">
        <ele>11</ele>
        <time>2023-11-12T08:13:36Z</time>
      </trkpt>
      <trkpt lat="47.18188" lon="-1.81669">
        <ele>11</ele>
        <time>2023-11-12T08:13:49Z</time>
      </trkpt>
      <trkpt lat="47.18179" lon="-1.81731">
        <ele>9</ele>
        <time>2023-11-12T08:14:46Z</time>
      </trkpt>
      <trkpt lat="47.18168" lon="-1.81751">
        <ele>9</ele>
        <time>2023-11-12T08:15:10Z</time>
      </trkpt>
      <trkpt lat="47.18152" lon="-1.81766">
        <ele>8</ele>
        <time>2023-11-12T08:15:35Z</time>
      </trkpt>
      <trkpt lat="47.18133" lon="-1.81778">
        <ele>7</ele>
        <time>2023-11-12T08:16:03Z</time>
      </trkpt>
      <trkpt lat="47.18098" lon="-1.81788">
        <ele>4</ele>
        <time>2023-11-12T08:16:50Z</time>
      </trkpt>
      <trkpt lat="47.18082" lon="-1.81809">
        <ele>3</ele>
        <time>2023-11-12T08:17:19Z</time>
      </trkpt>
      <trkpt lat="47.18074" lon="-1.81834">
        <ele>3</ele>
        <time>2023-11-12T08:17:44Z</time>
      </trkpt>
      <trkpt lat="47.18077" lon="-1.81992">
        <ele>2</ele>
        <time>2023-11-12T08:20:07Z</time>
      </trkpt>
      <trkpt lat="47.18076" lon="-1.82143">
        <ele>1</ele>
        <time>2023-11-12T08:22:24Z</time>
      </trkpt>
      <trkpt lat="47.18074" lon="-1.82176">
        <ele>1</ele>
        <time>2023-11-12T08:22:54Z</time>
      </trkpt>
      <trkpt lat="47.18079" lon="-1.82208">
        <ele>1</ele>
        <time>2023-11-12T08:23:24Z</time>
      </trkpt>
      <trkpt lat="47.181" lon="-1.82234">
        <ele>2</ele>
        <time>2023-11-12T08:24:01Z</time>
      </trkpt>
      <trkpt lat="47.18128" lon="-1.82249">
        <ele>2</ele>
        <time>2023-11-12T08:24:40Z</time>
      </trkpt>
      <trkpt lat="47.18151" lon="-1.82257">
        <ele>2</ele>
        <time>2023-11-12T08:25:12Z</time>
      </trkpt>
      <trkpt lat="47.18167" lon="-1.82255">
        <ele>3</ele>
        <time>2023-11-12T08:25:33Z</time>
      </trkpt>
      <trkpt lat="47.18196" lon="-1.82239">
        <ele>2</ele>
        <time>2023-11-12T08:26:15Z</time>
      </trkpt>
      <trkpt lat="47.18232" lon="-1.82195">
        <ele>4</ele>
        <time>2023-11-12T08:27:17Z</time>
      </trkpt>
      <trkpt lat="47.18242" lon="-1.82201">
        <ele>3</ele>
        <time>2023-11-12T08:27:32Z</time>
      </trkpt>
      <trkpt lat="47.1826" lon="-1.82206">
        <ele>3</ele>
        <time>2023-11-12T08:27:56Z</time>
      </trkpt>
      <trkpt lat="47.18275" lon="-1.82217">
        <ele>2</ele>
        <time>2023-11-12T08:28:18Z</time>
      </trkpt>
      <trkpt lat="47.18294" lon="-1.82221">
        <ele>3</ele>
        <time>2023-11-12T08:28:44Z</time>
      </trkpt>
      <trkpt lat="47.18315" lon="-1.82236">
        <ele>3</ele>
        <time>2023-11-12T08:29:15Z</time>
      </trkpt>
      <trkpt lat="47.18327" lon="-1.82249">
        <ele>3</ele>
        <time>2023-11-12T08:29:35Z</time>
      </trkpt>
      <trkpt lat="47.18334" lon="-1.82275">
        <ele>3</ele>
        <time>2023-11-12T08:30:00Z</time>
      </trkpt>
      <trkpt lat="47.18336" lon="-1.82288">
        <ele>4</ele>
        <time>2023-11-12T08:30:12Z</time>
      </trkpt>
      <trkpt lat="47.18333" lon="-1.82321">
        <ele>4</ele>
        <time>2023-11-12T08:30:43Z</time>
      </trkpt>
      <trkpt lat="47.18304" lon="-1.8235">
        <ele>3</ele>
        <time>2023-11-12T08:31:29Z</time>
      </trkpt>
      <trkpt lat="47.18282" lon="-1.82367">
        <ele>3</ele>
        <time>2023-11-12T08:32:03Z</time>
      </trkpt>
      <trkpt lat="47.18276" lon="-1.82375">
        <ele>3</ele>
        <time>2023-11-12T08:32:13Z</time>
      </trkpt>
      <trkpt lat="47.1827" lon="-1.82397">
        <ele>4</ele>
        <time>2023-11-12T08:32:35Z</time>
      </trkpt>
      <trkpt lat="47.18277" lon="-1.82424">
        <ele>4</ele>
        <time>2023-11-12T08:33:01Z</time>
      </trkpt>
      <trkpt lat="47.18295" lon="-1.82456">
        <ele>4</ele>
        <time>2023-11-12T08:33:39Z</time>
      </trkpt>
      <trkpt lat="47.18307" lon="-1.82466">
        <ele>4</ele>
        <time>2023-11-12T08:33:57Z</time>
      </trkpt>
      <trkpt lat="47.18309" lon="-1.82475">
        <ele>4</ele>
        <time>2023-11-12T08:34:06Z</time>
      </trkpt>
      <trkpt lat="47.18302" lon="-1.82485">
        <ele>4</ele>
        <time>2023-11-12T08:34:19Z</time>
      </trkpt>
      <trkpt lat="47.18301" lon="-1.82488">
        <ele>4</ele>
        <time>2023-11-12T08:34:22Z</time>
      </trkpt>
      <trkpt lat="47.18295" lon="-1.82491">
        <ele>4</ele>
        <time>2023-11-12T08:34:30Z</time>
      </trkpt>
      <trkpt lat="47.18286" lon="-1.82502">
        <ele>3</ele>
        <time>2023-11-12T08:34:46Z</time>
      </trkpt>
      <trkpt lat="47.18277" lon="-1.82523">
        <ele>3</ele>
        <time>2023-11-12T08:35:08Z</time>
      </trkpt>
      <trkpt lat="47.18267" lon="-1.82576">
        <ele>3</ele>
        <time>2023-11-12T08:35:58Z</time>
      </trkpt>
      <trkpt lat="47.18274" lon="-1.82683">
        <ele>3</ele>
        <time>2023-11-12T08:37:36Z</time>
      </trkpt>
      <trkpt lat="47.18285" lon="-1.82712">
        <ele>3</ele>
        <time>2023-11-12T08:38:06Z</time>
      </trkpt>
      <trkpt lat="47.18303" lon="-1.82774">
        <ele>3</ele>
        <time>2023-11-12T08:39:07Z</time>
      </trkpt>
      <trkpt lat="47.18321" lon="-1.82819">
        <ele>4</ele>
        <time>2023-11-12T08:39:54Z</time>
      </trkpt>
      <trkpt lat="47.18334" lon="-1.8289">
        <ele>5</ele>
        <time>2023-11-12T08:41:01Z</time>
      </trkpt>
      <trkpt lat="47.18317" lon="-1.82899">
        <ele>4</ele>
        <time>2023-11-12T08:41:25Z</time>
      </trkpt>
      <trkpt lat="47.18305" lon="-1.82913">
        <ele>4</ele>
        <time>2023-11-12T08:41:46Z</time>
      </trkpt>
      <trkpt lat="47.18297" lon="-1.8293">
        <ele>4</ele>
        <time>2023-11-12T08:42:04Z</time>
      </trkpt>
      <trkpt lat="47.18282" lon="-1.82968">
        <ele>4</ele>
        <time>2023-11-12T08:42:44Z</time>
      </trkpt>
      <trkpt lat="47.18266" lon="-1.82988">
        <ele>3</ele>
        <time>2023-11-12T08:43:12Z</time>
      </trkpt>
      <trkpt lat="47.18236" lon="-1.82994">
        <ele>3</ele>
        <time>2023-11-12T08:43:53Z</time>
      </trkpt>
      <trkpt lat="47.18207" lon="-1.82989">
        <ele>3</ele>
        <time>2023-11-12T08:44:32Z</time>
      </trkpt>
      <trkpt lat="47.1819" lon="-1.82988">
        <ele>3</ele>
        <time>2023-11-12T08:44:54Z</time>
      </trkpt>
      <trkpt lat="47.18174" lon="-1.82996">
        <ele>4</ele>
        <time>2023-11-12T08:45:17Z</time>
      </trkpt>
      <trkpt lat="47.18163" lon="-1.83004">
        <ele>4</ele>
        <time>2023-11-12T08:45:33Z</time>
      </trkpt>
      <trkpt lat="47.1816" lon="-1.83005">
        <ele>4</ele>
        <time>2023-11-12T08:45:37Z</time>
      </trkpt>
      <trkpt lat="47.18138" lon="-1.83031">
        <ele>3</ele>
        <time>2023-11-12T08:46:15Z</time>
      </trkpt>
      <trkpt lat="47.18134" lon="-1.8304">
        <ele>2</ele>
        <time>2023-11-12T08:46:25Z</time>
      </trkpt>
      <trkpt lat="47.18134" lon="-1.83056">
        <ele>2</ele>
        <time>2023-11-12T08:46:39Z</time>
      </trkpt>
      <trkpt lat="47.18138" lon="-1.83079">
        <ele>2</ele>
        <time>2023-11-12T08:47:01Z</time>
      </trkpt>
      <trkpt lat="47.18157" lon="-1.83153">
        <ele>2</ele>
        <time>2023-11-12T08:48:13Z</time>
      </trkpt>
      <trkpt lat="47.18178" lon="-1.83222">
        <ele>2</ele>
        <time>2023-11-12T08:49:21Z</time>
      </trkpt>
      <trkpt lat="47.18187" lon="-1.83238">
        <ele>3</ele>
        <time>2023-11-12T08:49:40Z</time>
      </trkpt>
      <trkpt lat="47.18188" lon="-1.83245">
        <ele>3</ele>
        <time>2023-11-12T08:49:47Z</time>
      </trkpt>
      <trkpt lat="47.18195" lon="-1.83255">
        <ele>3</ele>
        <time>2023-11-12T08:50:00Z</time>
      </trkpt>
      <trkpt lat="47.18198" lon="-1.8327">
        <ele>3</ele>
        <time>2023-11-12T08:50:14Z</time>
      </trkpt>
      <trkpt lat="47.18219" lon="-1.83317">
        <ele>4</ele>
        <time>2023-11-12T08:51:05Z</time>
      </trkpt>
      <trkpt lat="47.18223" lon="-1.83333">
        <ele>4</ele>
        <time>2023-11-12T08:51:20Z</time>
      </trkpt>
      <trkpt lat="47.18239" lon="-1.8336">
        <ele>4</ele>
        <time>2023-11-12T08:51:53Z</time>
      </trkpt>
      <trkpt lat="47.18272" lon="-1.83392">
        <ele>4</ele>
        <time>2023-11-12T08:52:45Z</time>
      </trkpt>
      <trkpt lat="47.18297" lon="-1.8341">
        <ele>4</ele>
        <time>2023-11-12T08:53:23Z</time>
      </trkpt>
      <trkpt lat="47.18312" lon="-1.83415">
        <ele>5</ele>
        <time>2023-11-12T08:53:43Z</time>
      </trkpt>
      <trkpt lat="47.1834" lon="-1.834">
        <ele>5</ele>
        <time>2023-11-12T08:54:23Z</time>
      </trkpt>
      <trkpt lat="47.18352" lon="-1.834">
        <ele>5</ele>
        <time>2023-11-12T08:54:39Z</time>
      </trkpt>
      <trkpt lat="47.18357" lon="-1.83398">
        <ele>5</ele>
        <time>2023-11-12T08:54:46Z</time>
      </trkpt>
      <trkpt lat="47.18376" lon="-1.83402">
        <ele>5</ele>
        <time>2023-11-12T08:55:11Z</time>
      </trkpt>
      <trkpt lat="47.18394" lon="-1.83417">
        <ele>5</ele>
        <time>2023-11-12T08:55:39Z</time>
      </trkpt>
      <trkpt lat="47.18436" lon="-1.83416">
        <ele>5</ele>
        <time>2023-11-12T08:56:35Z</time>
      </trkpt>
      <trkpt lat="47.18439" lon="-1.83424">
        <ele>5</ele>
        <time>2023-11-12T08:56:43Z</time>
      </trkpt>
      <trkpt lat="47.18437" lon="-1.8343">
        <ele>5</ele>
        <time>2023-11-12T08:56:49Z</time>
      </trkpt>
      <trkpt lat="47.18426" lon="-1.83447">
        <ele>5</ele>
        <time>2023-11-12T08:57:11Z</time>
      </trkpt>
      <trkpt lat="47.18394" lon="-1.83518">
        <ele>4</ele>
        <time>2023-11-12T08:58:28Z</time>
      </trkpt>
      <trkpt lat="47.18376" lon="-1.83533">
        <ele>4</ele>
        <time>2023-11-12T08:58:56Z</time>
      </trkpt>
      <trkpt lat="47.18346" lon="-1.83566">
        <ele>3</ele>
        <time>2023-11-12T08:59:46Z</time>
      </trkpt>
      <trkpt lat="47.18334" lon="-1.83587">
        <ele>3</ele>
        <time>2023-11-12T09:00:10Z</time>
      </trkpt>
      <trkpt lat="47.18327" lon="-1.83611">
        <ele>2</ele>
        <time>2023-11-12T09:00:34Z</time>
      </trkpt>
      <trkpt lat="47.18329" lon="-1.83644">
        <ele>2</ele>
        <time>2023-11-12T09:01:04Z</time>
      </trkpt>
      <trkpt lat="47.18335" lon="-1.83672">
        <ele>2</ele>
        <time>2023-11-12T09:01:31Z</time>
      </trkpt>
      <trkpt lat="47.18355" lon="-1.83738">
        <ele>2</ele>
        <time>2023-11-12T09:02:36Z</time>
      </trkpt>
      <trkpt lat="47.18369" lon="-1.83762">
        <ele>2</ele>
        <time>2023-11-12T09:03:05Z</time>
      </trkpt>
      <trkpt lat="47.18401" lon="-1.83818">
        <ele>3</ele>
        <time>2023-11-12T09:04:11Z</time>
      </trkpt>
      <trkpt lat="47.18444" lon="-1.83866">
        <ele>3</ele>
        <time>2023-11-12T09:05:23Z</time>
      </trkpt>
      <trkpt lat="47.18466" lon="-1.83887">
        <ele>4</ele>
        <time>2023-11-12T09:05:58Z</time>
      </trkpt>
      <trkpt lat="47.18482" lon="-1.83897">
        <ele>4</ele>
        <time>2023-11-12T09:06:22Z</time>
      </trkpt>
      <trkpt lat="47.18497" lon="-1.83899">
        <ele>5</ele>
        <time>2023-11-12T09:06:42Z</time>
      </trkpt>
      <trkpt lat="47.18556" lon="-1.83845">
        <ele>6</ele>
        <time>2023-11-12T09:08:14Z</time>
      </trkpt>
      <trkpt lat="47.18603" lon="-1.83807">
        <ele>6</ele>
        <time>2023-11-12T09:09:26Z</time>
      </trkpt>
      <trkpt lat="47.18615" lon="-1.83784">
        <ele>6</ele>
        <time>2023-11-12T09:09:52Z</time>
      </trkpt>
      <trkpt lat="47.18626" lon="-1.83757">
        <ele>6</ele>
        <time>2023-11-12T09:10:21Z</time>
      </trkpt>
      <trkpt lat="47.18633" lon="-1.83718">
        <ele>7</ele>
        <time>2023-11-12T09:10:57Z</time>
      </trkpt>
      <trkpt lat="47.18632" lon="-1.83683">
        <ele>8</ele>
        <time>2023-11-12T09:11:29Z</time>
      </trkpt>
      <trkpt lat="47.18636" lon="-1.83661">
        <ele>8</ele>
        <time>2023-11-12T09:11:50Z</time>
      </trkpt>
      <trkpt lat="47.18648" lon="-1.83644">
        <ele>9</ele>
        <time>2023-11-12T09:12:12Z</time>
      </trkpt>
      <trkpt lat="47.18667" lon="-1.83636">
        <ele>9</ele>
        <time>2023-11-12T09:12:38Z</time>
      </trkpt>
      <trkpt lat="47.18728" lon="-1.83621">
        <ele>11</ele>
        <time>2023-11-12T09:14:01Z</time>
      </trkpt>
      <trkpt lat="47.18783" lon="-1.83603">
        <ele>11</ele>
        <time>2023-11-12T09:15:16Z</time>
      </trkpt>
      <trkpt lat="47.18844" lon="-1.83575">
        <ele>11</ele>
        <time>2023-11-12T09:16:41Z</time>
      </trkpt>
      <trkpt lat="47.1888" lon="-1.83561">
        <ele>11</ele>
        <time>2023-11-12T09:17:31Z</time>
      </trkpt>
      <trkpt lat="47.18911" lon="-1.83552">
        <ele>11</ele>
        <time>2023-11-12T09:18:13Z</time>
      </trkpt>
      <trkpt lat="47.18949" lon="-1.83547">
        <ele>11</ele>
        <time>2023-11-12T09:19:04Z</time>
      </trkpt>
      <trkpt lat="47.19002" lon="-1.83528">
        <ele>12</ele>
        <time>2023-11-12T09:20:17Z</time>
      </trkpt>
      <trkpt lat="47.19026" lon="-1.83525">
        <ele>12</ele>
        <time>2023-11-12T09:20:49Z</time>
      </trkpt>
      <trkpt lat="47.19106" lon="-1.83501">
        <ele>14</ele>
        <time>2023-11-12T09:22:38Z</time>
      </trkpt>
      <trkpt lat="47.19111" lon="-1.83501">
        <ele>14</ele>
        <time>2023-11-12T09:22:45Z</time>
      </trkpt>
      <trkpt lat="47.19115" lon="-1.83507">
        <ele>14</ele>
        <time>2023-11-12T09:22:52Z</time>
      </trkpt>
      <trkpt lat="47.19124" lon="-1.83586">
        <ele>10</ele>
        <time>2023-11-12T09:24:05Z</time>
      </trkpt>
      <trkpt lat="47.19122" lon="-1.83615">
        <ele>10</ele>
        <time>2023-11-12T09:24:31Z</time>
      </trkpt>
      <trkpt lat="47.19129" lon="-1.83689">
        <ele>10</ele>
        <time>2023-11-12T09:25:39Z</time>
      </trkpt>
      <trkpt lat="47.19128" lon="-1.83709">
        <ele>10</ele>
        <time>2023-11-12T09:25:57Z</time>
      </trkpt>
      <trkpt lat="47.19145" lon="-1.83769">
        <ele>11</ele>
        <time>2023-11-12T09:26:56Z</time>
      </trkpt>
      <trkpt lat="47.19154" lon="-1.83824">
        <ele>11</ele>
        <time>2023-11-12T09:27:48Z</time>
      </trkpt>
      <trkpt lat="47.19167" lon="-1.83857">
        <ele>11</ele>
        <time>2023-11-12T09:28:22Z</time>
      </trkpt>
      <trkpt lat="47.19174" lon="-1.83891">
        <ele>12</ele>
        <time>2023-11-12T09:28:54Z</time>
      </trkpt>
      <trkpt lat="47.19194" lon="-1.8397">
        <ele>11</ele>
        <time>2023-11-12T09:30:11Z</time>
      </trkpt>
      <trkpt lat="47.19195" lon="-1.83993">
        <ele>11</ele>
        <time>2023-11-12T09:30:32Z</time>
      </trkpt>
      <trkpt lat="47.19201" lon="-1.84011">
        <ele>11</ele>
        <time>2023-11-12T09:30:50Z</time>
      </trkpt>
      <trkpt lat="47.19205" lon="-1.84045">
        <ele>10</ele>
        <time>2023-11-12T09:31:21Z</time>
      </trkpt>
      <trkpt lat="47.19203" lon="-1.841">
        <ele>8</ele>
        <time>2023-11-12T09:32:11Z</time>
      </trkpt>
      <trkpt lat="47.19194" lon="-1.84112">
        <ele>8</ele>
        <time>2023-11-12T09:32:27Z</time>
      </trkpt>
      <trkpt lat="47.19181" lon="-1.84114">
        <ele>8</ele>
        <time>2023-11-12T09:32:45Z</time>
      </trkpt>
      <trkpt lat="47.19173" lon="-1.8412">
        <ele>8</ele>
        <time>2023-11-12T09:32:57Z</time>
      </trkpt>
      <trkpt lat="47.1916" lon="-1.84124">
        <ele>8</ele>
        <time>2023-11-12T09:33:15Z</time>
      </trkpt>
      <trkpt lat="47.19127" lon="-1.84142">
        <ele>5</ele>
        <time>2023-11-12T09:34:02Z</time>
      </trkpt>
      <trkpt lat="47.19122" lon="-1.84141">
        <ele>5</ele>
        <time>2023-11-12T09:34:08Z</time>
      </trkpt>
      <trkpt lat="47.19116" lon="-1.84143">
        <ele>4</ele>
        <time>2023-11-12T09:34:17Z</time>
      </trkpt>
      <trkpt lat="47.19104" lon="-1.84173">
        <ele>3</ele>
        <time>2023-11-12T09:34:48Z</time>
      </trkpt>
      <trkpt lat="47.19097" lon="-1.84224">
        <ele>3</ele>
        <time>2023-11-12T09:35:35Z</time>
      </trkpt>
      <trkpt lat="47.19096" lon="-1.8426">
        <ele>3</ele>
        <time>2023-11-12T09:36:08Z</time>
      </trkpt>
      <trkpt lat="47.19107" lon="-1.84329">
        <ele>2</ele>
        <time>2023-11-12T09:37:12Z</time>
      </trkpt>
      <trkpt lat="47.19109" lon="-1.84361">
        <ele>3</ele>
        <time>2023-11-12T09:37:41Z</time>
      </trkpt>
      <trkpt lat="47.19108" lon="-1.84418">
        <ele>3</ele>
        <time>2023-11-12T09:38:33Z</time>
      </trkpt>
      <trkpt lat="47.19106" lon="-1.84455">
        <ele>3</ele>
        <time>2023-11-12T09:39:07Z</time>
      </trkpt>
      <trkpt lat="47.19102" lon="-1.84473">
        <ele>3</ele>
        <time>2023-11-12T09:39:24Z</time>
      </trkpt>
      <trkpt lat="47.19102" lon="-1.84492">
        <ele>3</ele>
        <time>2023-11-12T09:39:41Z</time>
      </trkpt>
      <trkpt lat="47.191" lon="-1.84523">
        <ele>2</ele>
        <time>2023-11-12T09:40:09Z</time>
      </trkpt>
      <trkpt lat="47.19104" lon="-1.84556">
        <ele>2</ele>
        <time>2023-11-12T09:40:40Z</time>
      </trkpt>
      <trkpt lat="47.19123" lon="-1.84611">
        <ele>2</ele>
        <time>2023-11-12T09:41:36Z</time>
      </trkpt>
      <trkpt lat="47.19144" lon="-1.84716">
        <ele>3</ele>
        <time>2023-11-12T09:43:15Z</time>
      </trkpt>
      <trkpt lat="47.1914" lon="-1.84734">
        <ele>2</ele>
        <time>2023-11-12T09:43:32Z</time>
      </trkpt>
      <trkpt lat="47.19128" lon="-1.84742">
        <ele>2</ele>
        <time>2023-11-12T09:43:50Z</time>
      </trkpt>
      <trkpt lat="47.19114" lon="-1.84749">
        <ele>2</ele>
        <time>2023-11-12T09:44:09Z</time>
      </trkpt>
      <trkpt lat="47.19104" lon="-1.8475">
        <ele>1</ele>
        <time>2023-11-12T09:44:23Z</time>
      </trkpt>
      <trkpt lat="47.1908" lon="-1.84763">
        <ele>1</ele>
        <time>2023-11-12T09:44:57Z</time>
      </trkpt>
      <trkpt lat="47.19062" lon="-1.84792">
        <ele>1</ele>
        <time>2023-11-12T09:45:33Z</time>
      </trkpt>
      <trkpt lat="47.19058" lon="-1.848">
        <ele>2</ele>
        <time>2023-11-12T09:45:42Z</time>
      </trkpt>
      <trkpt lat="47.19056" lon="-1.84836">
        <ele>2</ele>
        <time>2023-11-12T09:46:14Z</time>
      </trkpt>
      <trkpt lat="47.19055" lon="-1.84889">
        <ele>2</ele>
        <time>2023-11-12T09:47:02Z</time>
      </trkpt>
      <trkpt lat="47.19057" lon="-1.84901">
        <ele>2</ele>
        <time>2023-11-12T09:47:14Z</time>
      </trkpt>
      <trkpt lat="47.19072" lon="-1.84921">
        <ele>2</ele>
        <time>2023-11-12T09:47:41Z</time>
      </trkpt>
      <trkpt lat="47.19087" lon="-1.84922">
        <ele>3</ele>
        <time>2023-11-12T09:48:01Z</time>
      </trkpt>
      <trkpt lat="47.19125" lon="-1.84939">
        <ele>3</ele>
        <time>2023-11-12T09:48:54Z</time>
      </trkpt>
      <trkpt lat="47.19135" lon="-1.84946">
        <ele>3</ele>
        <time>2023-11-12T09:49:08Z</time>
      </trkpt>
      <trkpt lat="47.19151" lon="-1.84971">
        <ele>3</ele>
        <time>2023-11-12T09:49:40Z</time>
      </trkpt>
      <trkpt lat="47.1916" lon="-1.85012">
        <ele>2</ele>
        <time>2023-11-12T09:50:19Z</time>
      </trkpt>
      <trkpt lat="47.19164" lon="-1.85054">
        <ele>1</ele>
        <time>2023-11-12T09:50:57Z</time>
      </trkpt>
      <trkpt lat="47.19173" lon="-1.85113">
        <ele>2</ele>
        <time>2023-11-12T09:51:52Z</time>
      </trkpt>
      <trkpt lat="47.19185" lon="-1.85165">
        <ele>3</ele>
        <time>2023-11-12T09:52:42Z</time>
      </trkpt>
      <trkpt lat="47.19193" lon="-1.85189">
        <ele>3</ele>
        <time>2023-11-12T09:53:06Z</time>
      </trkpt>
      <trkpt lat="47.19196" lon="-1.85192">
        <ele>3</ele>
        <time>2023-11-12T09:53:11Z</time>
      </trkpt>
      <trkpt lat="47.19204" lon="-1.85221">
        <ele>3</ele>
        <time>2023-11-12T09:53:39Z</time>
      </trkpt>
      <trkpt lat="47.19231" lon="-1.85293">
        <ele>4</ele>
        <time>2023-11-12T09:54:54Z</time>
      </trkpt>
      <trkpt lat="47.19246" lon="-1.85303">
        <ele>4</ele>
        <time>2023-11-12T09:55:16Z</time>
      </trkpt>
      <trkpt lat="47.19252" lon="-1.85319">
        <ele>4</ele>
        <time>2023-11-12T09:55:32Z</time>
      </trkpt>
      <trkpt lat="47.19244" lon="-1.85334">
        <ele>4</ele>
        <time>2023-11-12T09:55:50Z</time>
      </trkpt>
      <trkpt lat="47.19248" lon="-1.85346">
        <ele>4</ele>
        <time>2023-11-12T09:56:02Z</time>
      </trkpt>
      <trkpt lat="47.19238" lon="-1.85361">
        <ele>4</ele>
        <time>2023-11-12T09:56:21Z</time>
      </trkpt>
      <trkpt lat="47.19234" lon="-1.85371">
        <ele>4</ele>
        <time>2023-11-12T09:56:31Z</time>
      </trkpt>
      <trkpt lat="47.19239" lon="-1.85387">
        <ele>4</ele>
        <time>2023-11-12T09:56:47Z</time>
      </trkpt>
      <trkpt lat="47.1925" lon="-1.85404">
        <ele>3</ele>
        <time>2023-11-12T09:57:09Z</time>
      </trkpt>
      <trkpt lat="47.19276" lon="-1.85427">
        <ele>3</ele>
        <time>2023-11-12T09:57:49Z</time>
      </trkpt>
      <trkpt lat="47.19277" lon="-1.85423">
        <ele>3</ele>
        <time>2023-11-12T09:57:53Z</time>
      </trkpt>
      <trkpt lat="47.19268" lon="-1.85411">
        <ele>3</ele>
        <time>2023-11-12T09:58:09Z</time>
      </trkpt>
      <trkpt lat="47.19251" lon="-1.85405">
        <ele>3</ele>
        <time>2023-11-12T09:58:32Z</time>
      </trkpt>
    </trkseg>
  </trk>
</gpx>